GFSSE_prec_radar_072.txt.gz
Reflectivity
11 -8 -20 -13 13 36 9 -7 -20 -5 -20 -20 -20 -20 -20 -10 -20 -20 -20 -20 -20 -20 -20 -20 -20 -20 -20 -20 -20 -20 -20 -20 -20 5 3 6 1 -3 1 3 5 -2 11
8 -8 -20 -20 -12 19 23 -17 -20 -2 -13 -20 -20 -20 -0 -7 -20 -20 -20 -20 -20 -20 -20 -20 -20 -20 -15 2 -18 -20 -20 -20 -20 -20 -20 -20 -20 -19 3 2 -20 9 8
-16 -0 -20 -20 -20 -16 6 -17 -20 -20 -20 -20 -20 -20 -20 -13 -17 -20 -20 -20 -20 -20 -20 -20 -20 -20 -20 -20 -20 -16 -20 -20 -20 -20 -20 -20 -20 -1 -3 -20 5 9 -12
-20 -12 -15 -1 -9 -9 34 28 9 -20 -20 -20 -20 -20 -20 -20 -20 -20 -20 -20 -20 -20 -20 -20 -20 -20 -20 -20 -20 -20 -20 -20 -20 -20 -20 -20 -20 -20 -20 -20 7 15 14
11 26 40 3 -20 12 30 37 27 0 -20 -20 5 9 -4 -20 -20 -20 -20 -20 -20 -20 -20 -20 -20 -20 -20 -20 -20 -20 -20 -20 -20 -20 -20 -20 -20 -16 -20 -20 12 17 16
19 30 -8 -20 -19 27 39 40 40 10 6 -20 1 8 -20 -20 -20 -20 -20 -20 -20 -20 -20 -20 -20 -20 -20 -20 -20 -20 -20 -20 -20 -20 -20 -20 -20 -20 -20 -20 -20 -20 -20
-2 17 9 16 -9 29 29 33 37 40 2 -1 -15 19 1 -18 -20 -20 -20 -20 -20 -20 -20 -20 -20 -20 -20 -20 -20 -20 -20 -20 -20 -20 -20 -20 -20 -20 -20 -20 -20 -20 -20
-1 11 37 33 21 43 40 41 40 39 3 19 21 -6 2 -20 -20 -20 -20 -20 -20 -20 -20 -20 -20 -20 -20 -20 -20 -20 -20 -20 -20 -20 -20 -20 -20 -20 -20 -20 -20 -20 -20
14 7 35 34 34 27 26 39 41 39 34 14 10 -6 -9 -20 -20 -20 -20 -20 -20 -20 -20 -20 -20 -20 -20 -20 3 -20 -20 -20 -20 -20 -20 -20 -20 -20 -20 -20 -20 -20 -20
14 22 5 28 9 21 19 46 42 41 42 32 26 -6 -20 -20 -20 -20 -20 -20 -20 -20 -20 -20 -6 -10 -20 -2 10 -18 -20 -20 -20 -20 -20 -20 -20 -20 -20 -20 -20 -20 -20
-12 -19 30 24 7 3 6 17 40 41 44 31 19 -11 -18 -20 -20 -20 -20 -20 -20 -18 -20 -20 -20 -19 -20 -20 6 -20 -20 -20 -20 -20 -20 -20 -20 -20 -20 -20 -20 -20 -20
5 5 25 21 -18 7 -5 2 30 27 41 31 14 19 -6 2 -12 -17 12 1 -18 -20 -20 -20 -20 -20 -20 -20 -20 -20 -20 -20 -20 -20 -20 -20 -20 -20 -20 -20 -20 -20 -20
17 18 14 -20 -20 -20 -12 8 11 23 27 31 23 28 19 24 15 9 -13 -15 -20 -20 -20 5 -5 -20 -20 -20 -20 -20 -20 -20 -20 -20 -20 -20 -20 -20 -20 -20 -20 -20 -20
11 6 -20 -19 -20 -20 -20 3 7 26 17 25 28 28 18 -2 -19 -20 -20 -20 -20 -20 5 -20 -20 -20 -20 -20 -20 -20 -20 -20 -20 -20 -20 -20 -20 -20 -20 -20 -20 -20 -20
10 17 -20 -20 -20 -20 -20 -3 2 7 13 -8 15 13 8 -19 -20 -20 -20 -20 -20 -18 -20 -20 -20 -20 -20 -20 -20 -20 -20 -20 -20 -20 -20 -20 -20 -20 -20 -20 -20 -20 -20
11 15 9 -18 -19 -20 -20 -20 -19 -20 -10 -11 1 -14 -17 -20 -20 -20 -20 -20 -20 -20 -20 -20 -20 -20 -19 -20 -20 -20 -20 -20 -20 -20 -20 -20 -20 -20 -20 -20 -20 -20 -20
1 8 17 26 19 6 -10 -4 10 7 -16 -20 -18 -7 -20 -20 -20 -20 -20 -20 -20 -20 -20 -20 -20 -20 -20 -20 -20 -20 -20 -20 -20 -20 -20 -20 -20 -20 -20 -20 -20 -20 -20
-7 20 15 18 22 18 11 -15 -20 -20 -20 -20 -20 -20 -20 -20 -20 -20 -20 -20 -20 -20 -20 -20 -20 -20 -20 -20 -20 -20 -20 -20 -20 -20 -20 -20 -20 -20 -20 -20 -20 -20 -20
-11 18 20 26 -4 -20 -20 -8 -20 -20 -14 -20 -20 -20 -20 -20 -20 -20 -20 -20 -20 -20 -20 -20 -20 -20 -20 -20 -20 -20 -20 -20 -20 -20 -20 -20 -20 -20 -20 -20 -20 -20 -20
-1 3 27 12 -18 -20 -7 -18 -20 -0 7 -20 -20 -20 -20 -20 -20 -20 -20 -20 -20 -20 -20 -20 -20 -20 -20 -20 -20 -20 -20 -20 -20 -20 -20 -20 -20 -20 -20 -20 -20 -20 -20
-20 -20 -20 -0 -20 -13 -10 -7 9 2 -20 -20 -20 -20 -20 -20 -20 -20 -20 -20 -20 -20 -20 -20 -20 -20 -20 -20 -20 -20 -20 -20 -20 -20 -20 -20 -20 -20 -20 -20 -20 -20 -20
-20 -20 -20 -20 -20 -20 -20 -20 -20 -20 -20 -20 -20 -20 -20 -20 -20 -20 -20 -20 -20 -20 -20 -20 -20 -20 -20 -20 -20 -20 -20 -20 -20 -20 -20 -20 -20 -20 -20 -20 -20 -20 -20
-20 -20 -20 -20 -20 -20 -20 -20 -20 -20 -20 -20 -20 -20 -20 -20 -20 -20 -20 -20 -20 -20 -20 -20 -20 -20 -20 -20 -20 1 22 20 -7 -18 -13 -4 -20 -20 -20 -20 -20 -20 -20
-20 -20 -20 -20 -20 -20 -20 -20 -20 -20 -20 -20 -20 -20 -20 -20 -20 -20 -20 -20 -20 -20 -20 -20 8 -20 -20 -7 15 22 24 23 22 28 4 -0 0 1 -15 -18 -12 -20 -20
-20 -20 -20 -20 -20 -20 -20 -20 -20 -20 -20 -20 -20 -20 -20 -20 -20 -20 -20 -20 -20 -20 -20 8 -20 -20 7 10 -15 17 -14 23 5 20 27 17 8 20 -14 -6 -3 -20 -20
-20 -20 -20 -20 -20 -20 -20 -20 -20 -20 -20 -20 -20 -20 -20 -20 -20 -20 -20 -20 -20 -20 -20 27 -18 8 -20 -16 -20 -20 1 6 22 17 19 -9 10 1 -3 7 4 -19 -20

GFSSE_prec_radar_075.txt.gz
Reflectivity
-8 -13 1 -14 -20 -20 -20 -20 -20 -20 -8 -13 -6 -19 -20 -20 -20 -20 -20 -20 -20 -20 -20 -20 -20 -20 -20 -20 -20 -20 -20 -6 5 -16 -3 12 15 20 7 2 10 8 12
16 -20 -20 -20 -20 -20 -20 -17 -19 -1 -8 5 -20 -20 -20 -20 -20 -20 -20 -20 -20 -20 -20 -20 -20 -20 -20 -20 -20 -20 -20 -20 0 11 -3 -19 12 19 6 15 14 13 17
2 14 -20 -20 -16 -20 -20 -20 -20 6 -17 -20 -20 -20 -14 -5 -20 -20 -20 -20 -20 -20 -20 -13 16 9 2 -14 -20 -20 -20 -20 -20 -20 -20 -20 -1 -9 13 -12 -11 9 12
-13 -20 -20 4 30 15 19 2 -20 -3 10 3 1 1 1 5 -20 -20 -20 -20 -20 -20 -20 -20 -19 -20 -20 -20 -20 -20 -20 -20 -20 -20 -20 -20 -20 -5 14 11 17 13 11
-20 15 -0 12 48 29 29 34 28 -6 32 5 9 11 4 22 -18 -20 -20 -20 -20 -20 -20 -20 -11 -10 -20 -20 -20 -20 -20 -20 -20 -20 -20 -20 -20 -3 16 16 10 18 14
-20 -20 10 13 33 22 32 18 -6 -13 36 35 15 5 -17 -3 18 -20 -20 -20 -20 -20 -20 -20 -20 -20 -20 -20 -20 -20 -20 -20 -20 -20 -20 -20 -20 -1 -4 -2 -13 -8 -4
-20 -20 -20 5 -3 -1 -1 -20 -20 -3 -1 42 28 -12 -15 -20 -17 -20 -20 -20 -20 -20 -20 -20 -20 -20 -20 -20 -20 -20 -20 -20 -20 -20 -20 -20 -20 -20 -6 -20 -20 -20 -20
4 -20 3 -20 4 12 1 4 -7 28 27 40 3 6 -14 0 2 -20 -20 -20 -20 -20 -20 -20 -20 -20 -20 -20 -20 -20 -20 -20 -20 -20 -20 -20 -20 -20 -20 -7 -6 -20 -20
0 3 28 5 -11 27 35 16 20 16 38 40 30 6 -18 -16 -20 -0 -20 -20 -20 -20 -20 -20 -20 -20 -20 -20 -20 -20 -20 -20 -20 -20 -20 -20 -20 -20 -20 -18 -20 -20 -20
26 -4 -20 -20 -13 12 5 21 15 29 40 38 20 28 -20 9 28 -20 -20 -20 -20 -20 -20 -20 -20 -20 -20 -9 -20 -20 -20 -20 -20 -20 -20 -20 -20 -20 -20 -20 -20 -20 -20
-1 20 16 -10 6 5 -19 6 34 35 40 38 38 12 -11 19 -19 -20 -15 -20 -20 -20 -20 -20 -20 -20 -15 -0 -20 -20 -20 -14 -20 -20 -20 -20 -20 -20 -20 -20 -20 -20 -20
5 13 -19 -13 -14 -13 -17 5 17 34 38 42 38 13 -0 -2 -20 -20 -20 -20 -20 -20 -20 -20 -20 -13 -11 -11 -20 -20 -20 -20 -20 -20 -20 -20 -20 -20 -20 -20 -20 -20 -20
-15 -11 14 -20 -20 -20 -20 -18 -13 17 37 34 22 11 6 2 10 14 3 -4 -20 -20 -20 -20 -20 -20 9 -14 -20 -20 -20 -20 -20 -20 -20 -20 -20 -20 -20 -20 -20 -20 -20
-12 -4 -2 0 -20 -20 -19 10 22 29 37 34 29 -1 11 26 18 9 9 -2 -5 -10 -20 -20 -20 -19 -19 -20 -20 -20 -20 -20 -20 -20 -20 -20 -20 -20 -20 -20 -20 -20 -20
-7 22 12 -20 -20 -20 -20 12 6 11 28 25 21 7 18 8 23 21 14 -18 -20 -20 -20 -20 -20 -20 -20 -20 -20 -20 -20 -20 -20 -20 -20 -20 -20 -20 -20 -20 -20 -20 -20
-17 16 -17 -20 -20 -20 -15 -19 -13 11 5 17 23 17 9 7 11 4 -10 -20 -20 -20 -20 -20 -20 -20 -20 -20 -20 -20 -20 -20 -20 -20 -20 -20 -20 -20 -20 -20 -20 -20 -20
-4 -18 -1 -18 -20 -15 -1 -20 13 -19 12 20 26 29 26 -11 -20 -20 -20 -20 -20 -20 -20 -20 -20 -20 -20 -20 -20 -20 -20 -20 -20 -20 -20 -20 -20 -20 -20 -20 -20 -20 -20
-2 -5 26 9 7 15 13 9 16 21 12 18 13 22 -2 -20 -20 -18 -20 -20 -20 -20 -20 -20 -20 -20 -20 -20 -11 -20 -20 -20 -20 -20 -20 -20 -20 -20 -20 -20 -20 -20 -20
-18 5 -14 -2 -9 20 24 11 29 6 20 15 -9 9 -12 -20 -20 -18 -20 -20 -20 -20 -20 -16 -20 -20 -20 -20 -20 -20 -20 -20 -20 -20 -20 -20 -20 -20 -20 -20 -20 -20 -20
-20 -10 5 2 28 26 25 19 28 23 17 8 -4 13 -9 -20 -20 -20 -20 -20 -20 -20 -20 -17 -16 -20 -20 -20 -20 -20 -20 -20 -20 -20 -20 -20 -20 -20 -20 -20 -20 -20 -20
-20 10 -8 10 13 18 22 17 22 7 -11 -20 -3 8 -20 -20 -20 -20 -20 -20 -20 -20 -12 3 -14 -20 -20 -20 -20 -20 -20 -20 -20 -20 -20 -20 -20 -20 -20 -20 -20 -20 -20
-20 -20 -20 -20 -20 -20 3 29 15 -20 5 -7 -5 -20 -20 -20 -20 -20 -20 -20 -19 -15 5 -20 -20 -20 -20 -20 -20 -20 -20 -20 -20 -20 -20 -20 -20 -20 -20 -20 -20 -20 -20
-20 -20 -20 -20 -20 -20 12 -18 -20 -5 17 -19 -20 -20 -20 -20 -20 -20 -20 -20 -20 -20 -20 -20 -20 -20 -20 -20 -20 -4 -16 -14 20 0 -20 -19 -8 1 -20 -10 -15 -20 -20
-20 -20 -20 -20 -20 -20 -20 -20 -20 -20 -20 -20 -20 -20 -20 -20 -20 -20 -20 -20 -20 -20 -20 -20 -20 -20 -18 -20 -1 3 -15 -20 -20 -20 -15 -13 -20 3 16 1 -18 -20 -20
-20 -20 -20 -20 -20 -20 -20 -20 -20 -20 -20 -20 -20 -20 -20 -20 -20 -20 -20 -20 -20 -20 -20 -20 -20 -20 18 -19 -4 23 -20 -20 -20 -18 -7 -9 19 9 14 -9 -8 -20 -6
-20 -20 -20 -20 -20 -20 -20 -20 -20 -20 -20 -20 -20 -20 -20 -20 -20 -20 -20 -20 -20 -20 -20 -14 17 -5 -1 17 -8 -11 -8 -20 15 -16 1 11 13 2 12 10 11 1 11

GFSSE_prec_radar_081.txt.gz
Reflectivity
-20 -20 -20 -20 -20 -18 -20 -20 -20 -20 -6 -3 -20 -20 4 16 9 12 -20 -20 6 10 11 -13 2 7 4 12 11 7 6 9 9 5 -20 -20 -18 -5 -9 -20 8 -20 -2
-20 -11 -20 -20 -20 -20 -20 -20 -20 -19 -20 -20 -20 -20 -20 8 18 9 -9 -20 -17 -15 6 -20 -20 4 13 -13 -20 -17 9 -12 8 7 -9 1 8 -4 -20 -20 -20 -20 -20
-2 4 -18 -20 -20 -20 -20 -4 -20 7 -17 -20 -20 -20 -20 -20 -19 -20 -20 -20 -5 7 -18 -20 0 12 17 -0 -20 -17 -20 -20 -20 -20 14 5 8 -7 -20 -20 -20 -20 -17
-13 5 6 -20 -20 -20 -20 -20 -6 9 3 -0 -20 -20 -20 8 -14 -20 -12 -20 -20 -0 -9 -3 15 3 -1 -20 -20 -20 -20 -20 -20 -20 -20 -5 1 7 2 -20 -20 -5 -6
-20 -11 -20 -19 -17 -14 10 9 7 -19 45 32 4 6 -6 -19 9 -20 -20 -20 -17 -20 -7 -15 -14 -20 -20 -20 -20 -20 -20 -20 -20 -20 -20 -20 -20 7 -18 -20 -20 -20 -20
-6 13 -0 -20 -18 -20 -20 9 29 -20 17 39 12 7 -20 -6 -1 -20 -20 -20 -20 -20 14 -2 -20 -20 -20 -20 -20 -20 -20 -20 -20 -20 -20 -20 -20 -20 -7 -20 -20 -20 -20
1 20 25 23 19 -15 -20 -20 -20 3 44 42 23 7 -10 -20 -20 -6 -20 1 -20 -20 10 -7 -20 -20 -20 -20 -20 -20 -20 -20 -20 -20 -20 -20 -14 3 13 11 4 -16 -20
-9 22 6 12 24 14 -20 -20 -2 -3 7 27 35 29 9 1 -20 13 -5 -20 -20 -20 11 -18 -20 -20 -20 -20 -20 -20 -20 -20 -20 -20 -20 -20 -16 0 -20 -20 -20 -20 -20
4 -18 -1 -2 0 9 3 -20 -20 -20 19 9 18 21 9 13 -18 4 12 -20 -20 -20 -20 -20 -20 -20 -20 -20 -20 -20 -20 -20 -20 -20 -20 -20 -20 -20 -15 -15 -20 -20 -20
-4 -18 11 -7 33 29 -20 -20 16 -15 -18 30 37 32 22 6 8 25 16 -11 -20 -20 -20 -20 -20 -20 -20 -20 -20 -20 -20 -20 -20 -20 -20 -19 -4 -20 -20 -20 -20 -20 -20
3 -3 -1 2 11 21 15 32 23 24 5 32 30 33 31 8 -2 10 4 4 -20 -20 -20 -20 -20 -20 -20 -20 -20 -20 -20 -20 -20 -20 -20 -2 -20 -20 -20 -20 -20 -20 -20
-13 -9 2 -15 -7 18 28 24 -18 -20 25 26 37 32 20 29 11 7 17 -6 -20 -20 -20 -20 -20 -20 -20 -20 -20 -20 -20 -20 -20 -20 -20 -20 -20 -20 -20 -20 -20 -20 -20
-20 -17 -5 14 -19 29 -6 -19 -16 -2 12 30 42 33 18 30 8 9 15 12 -10 -20 -20 -20 -20 -20 -20 -20 -20 -20 -20 -7 -20 -20 -20 -20 -20 -20 -20 -20 -20 -20 -20
-20 1 4 9 3 -1 -4 12 21 10 16 31 35 28 23 19 8 7 5 18 -18 -20 -20 -20 -20 -20 -20 -20 -20 -20 -20 -20 -20 -20 -20 -20 -20 -20 -20 -20 -20 -20 -20
-20 -8 -3 3 -5 -7 7 -20 0 19 28 25 31 33 -13 4 10 11 -2 14 -6 -15 -20 -20 -20 -18 -17 -20 -20 -20 -20 -20 -20 -20 -20 -20 -20 -20 -20 -20 -20 -20 -20
-20 -7 -6 -9 -0 -20 -20 16 23 31 27 29 34 21 11 16 22 9 15 13 9 5 -16 -20 9 -19 -20 -20 -20 -20 -20 -20 -20 -20 -20 -20 -20 -20 -20 -20 -20 -20 -20
-3 -7 -20 -2 -12 -20 -19 22 24 34 34 33 30 16 -1 1 12 11 24 3 19 8 1 16 -18 -20 -20 -20 -20 -20 -20 -20 -20 -20 -20 -20 -20 -20 -20 -20 -20 -20 -20
-5 -4 -9 -20 -20 -20 -7 26 19 24 29 28 23 8 3 14 14 16 6 23 28 12 -2 -20 -20 -20 -20 -20 -20 -20 -20 -20 -20 -20 -20 -20 -20 -20 -20 -20 -20 -20 -20
-17 1 -12 3 -20 -20 -20 14 22 32 29 29 25 27 25 20 12 10 5 -1 -13 12 5 -6 -9 -20 -18 -20 -20 -20 -20 -20 -20 -20 -20 -20 -20 -20 -20 -20 -20 -20 -20
-10 10 7 -0 -20 -20 8 9 16 31 28 22 4 21 13 -19 -20 -20 -20 -20 5 7 -6 -20 -18 -20 -15 -12 -20 -20 -20 -20 -20 -20 -20 -20 -20 -20 -20 -20 -20 -20 -20
11 9 -9 23 15 14 -3 18 31 30 31 24 -17 0 19 2 -20 -20 -3 8 8 24 -20 17 -17 -20 -20 -7 9 -20 -20 -20 -20 -20 -20 -20 -20 -20 -20 -20 -20 -20 -20
8 10 4 -4 -7 6 7 25 19 30 25 22 16 12 2 -20 -20 -20 -20 -20 -20 -20 -20 -20 -20 -20 -20 -20 -20 -20 -20 -20 -20 -20 -20 -20 -20 -17 -7 3 20 -9 -20
7 0 0 -20 -6 -19 19 20 23 35 31 24 14 20 14 -17 -20 -20 -20 -20 -20 -20 -20 -20 -20 -20 -20 -20 -20 -20 -20 -20 -20 -20 -20 -15 -20 -20 -20 -20 -20 6 5
-19 8 4 -20 -20 -14 18 28 22 26 20 21 11 23 16 -7 -16 -20 -20 -20 -20 -20 -20 -20 -20 -20 -20 -20 -20 -20 -20 -20 -20 -20 -20 10 9 -19 -18 -20 -20 -3 -15
-20 -20 -20 -14 -20 -20 -2 12 1 2 -2 21 -6 -1 -5 -20 -20 -20 -20 -20 -20 -20 -20 -20 -20 -20 -20 -20 -20 -20 -20 -20 -20 -20 -20 8 19 -20 -19 -20 -20 -20 -20
-20 -9 -15 -16 -20 -20 -20 -20 -20 -14 -13 -2 -15 -20 -20 -20 -20 -20 -20 -20 -20 -20 -20 -20 -20 -20 -20 -20 -20 -20 -20 -13 -20 -18 -20 -20 14 -19 -17 -20 -20 -20 2

GFSSE_prec_radar_087.txt.gz
Reflectivity
-20 -20 -20 -20 -20 -20 -3 -20 -20 -5 0 -3 0 -20 -20 2 3 1 -20 -20 -20 -20 -20 -7 11 13 -3 -20 -20 -20 -20 -20 -20 -19 -1 8 8 5 -10 6 3 2 -1
-20 -20 -20 -20 -20 -20 5 -20 -20 -4 -0 0 -13 -20 -20 -8 -13 -20 -20 -20 -20 -19 -19 -2 -9 -8 -20 -20 -20 -20 -20 -20 -20 -20 -3 -18 4 2 -20 -4 11 -20 -5
-20 -20 -20 -20 -20 -20 8 9 -20 -2 5 5 -20 -20 -20 -20 -20 -20 5 -4 -20 -8 -10 -6 -5 -20 -18 -20 -20 -20 -20 -20 -20 10 2 -20 0 -8 -17 -7 6 -19 -20
-20 -20 -8 -20 -20 -20 -20 -20 -18 -12 7 0 -19 -20 -20 -5 -20 -20 -20 15 -3 -0 1 -0 -7 9 -4 -20 -20 -20 -20 -20 -20 -20 -20 -20 -11 9 -1 7 -3 -2 -20
-20 -20 -20 -20 -20 -20 -17 -20 -20 -20 21 -1 -20 -20 -20 -1 -20 14 13 -20 -20 -17 -17 -1 5 3 -20 -20 -20 -20 -20 -20 -20 -20 -20 -20 -20 5 -20 -20 -20 -20 -20
-20 -20 5 -20 -20 -6 -20 30 -15 19 35 36 32 33 -2 7 -7 26 -12 -18 -6 2 11 10 10 -19 -20 -20 -20 -20 -12 -20 -20 -20 -20 -20 -20 3 -12 -20 -20 -20 -20
-20 -20 -2 -20 -20 -20 -20 -20 -20 21 39 47 48 42 30 31 23 1 -20 -19 -16 -11 -2 -8 -20 -20 -20 -20 -20 -20 -20 -20 -20 -20 -20 -20 -19 1 -20 -6 -20 -20 -20
-20 -20 2 4 -20 -20 -6 -18 -16 14 16 26 43 31 25 27 34 34 -20 9 -5 -20 -20 -16 -20 -20 -20 -20 -20 -20 -20 -20 -20 -20 -20 -20 3 -8 -14 -19 -20 -20 -20
-20 -20 -6 8 -20 -16 -17 -16 -20 7 29 21 19 30 -2 22 37 31 21 20 -15 -20 -20 -20 -20 -20 -20 -20 -20 -20 -20 -20 -20 -20 -20 -20 3 -10 -20 -6 -9 -5 -4
-20 -20 -8 6 16 -13 9 -20 -20 -9 27 28 26 25 24 35 33 30 -5 29 13 -20 -20 -20 -20 -20 -20 -20 -20 -20 -20 -20 -20 -20 -20 -20 2 -13 -0 -5 -4 -5 -6
-20 -20 -3 -2 10 13 13 -17 -16 -20 1 20 29 22 38 36 34 -0 6 15 -0 -20 -20 -20 -20 -20 -20 -20 -20 -20 -20 -20 -20 -20 -20 -3 4 4 0 -4 -5 -6 -20
-20 -18 -2 0 6 -1 3 14 7 27 21 17 24 27 39 46 35 11 10 11 -18 -20 -20 -20 -20 -20 -20 -20 -20 -20 -20 -20 -20 -20 -20 3 12 -7 -12 -13 -13 -20 -20
-20 -20 -20 2 -18 8 22 12 10 25 12 21 9 6 30 33 36 31 7 -2 -20 -20 -20 -20 -20 -20 -20 -20 -20 -20 -20 -20 -20 -20 -20 -15 4 -20 -3 -20 -20 -20 -20
-20 -13 -20 -3 -20 2 -20 -15 19 18 25 13 16 25 27 34 36 26 1 -5 -20 15 1 -20 -20 -20 -20 -20 -20 -20 -20 -20 -20 -20 -20 -20 1 -20 -20 -20 -20 -20 -20
-20 -20 -17 3 -17 4 24 -3 6 22 24 13 16 41 26 26 33 35 4 -5 -20 -20 -5 4 -18 -20 -20 -20 -20 -20 -20 -20 -20 -20 -20 -20 -12 -9 -20 -20 -20 -20 -20
-20 -18 -6 -0 -2 -17 -20 15 19 19 24 7 -7 15 32 31 32 31 16 -7 2 -20 -20 -18 -14 -20 -20 -20 -20 -20 -20 -20 -20 -20 -20 -20 -20 -20 -20 -20 -20 -20 -20
-20 -14 -1 -4 -6 -20 -17 -12 -17 10 3 2 -5 20 7 15 25 30 22 21 9 -20 -20 -8 0 -3 -20 -20 -20 -20 -20 -20 -20 -20 -20 -20 -20 -20 -20 -20 -20 -20 -20
-20 -11 -20 -20 -20 3 0 1 1 -19 14 5 6 6 31 29 -6 3 33 25 23 8 -3 -9 3 9 -10 -20 -20 -20 -20 -20 -20 -20 -20 -20 -20 -20 -20 -20 -20 -20 -20
-20 -16 -13 -20 -20 0 11 4 -1 0 18 24 12 22 20 29 26 30 26 24 14 2 5 -0 3 6 17 16 -15 -20 -20 -20 -20 -20 -20 -20 -20 -20 -20 -20 -20 -20 -20
-20 -20 5 -13 -20 14 0 9 15 11 22 26 22 21 24 25 27 35 28 26 9 10 24 23 3 23 9 -19 -19 -20 -20 -20 -20 -20 -20 -20 -20 -20 -20 -20 -20 -20 -20
-20 -20 3 -1 -5 10 7 15 11 11 1 6 17 33 34 32 28 28 28 23 31 30 27 20 25 -0 -17 -7 -20 -20 -20 -20 -20 -20 -20 -20 -20 -20 -20 -20 -20 -20 -20
-20 -19 11 -1 -10 5 7 6 11 15 17 13 18 24 -4 4 18 24 28 15 17 -4 -18 -15 -13 -20 -20 -20 -20 -20 -20 -20 -20 -20 -20 -20 -20 -20 -20 -20 -20 -20 -20
-20 -20 -6 -2 3 11 5 15 24 17 16 18 20 15 -8 9 8 -2 -17 -9 -19 6 5 14 3 -20 -20 -20 -20 -20 -3 23 5 -20 -20 -20 -20 -20 -20 -20 -20 -20 -20
-20 -20 5 -5 2 8 9 7 9 -6 -3 -10 23 12 25 7 -13 -7 -9 6 11 -0 18 15 -16 -20 -13 -20 -20 -20 -20 12 23 24 -20 -20 -20 -20 -20 -20 -20 -20 -20
-20 -20 5 2 -3 4 14 -14 14 9 17 4 19 -12 -3 12 16 24 20 6 -7 3 -7 27 -19 -20 -20 -20 -20 -20 -20 -20 -20 -20 -20 -12 -20 -20 -20 -20 -14 -18 -20
-20 -20 4 2 -1 -0 2 -11 16 23 18 -1 6 -7 -20 -20 -6 -3 2 8 -18 -18 5 -5 -20 -20 -20 -20 -20 -20 -20 -20 -20 -10 -20 -20 23 -7 -20 -20 -17 10 23

GFSSE_prec_radar_090.txt.gz
Reflectivity
-20 -20 -20 -20 -20 -15 -20 -2 3 -16 -20 -17 -20 -20 -20 -20 -20 -20 -20 -20 -20 -20 -20 -20 -20 -20 -20 -20 -20 -20 -20 -20 -20 1 7 5 4 9 -5 -5 1 1 12
-20 -20 -20 -20 -20 -20 -20 -20 -1 6 3 -7 -20 -20 -20 -20 -20 -20 -20 -20 -20 -20 -2 -2 -18 -20 -20 -20 -20 -20 -20 -20 -20 -5 7 10 8 9 -20 -3 -10 7 14
-20 -20 -20 -20 -20 -20 -18 11 3 6 3 3 -20 -20 -20 -20 -20 -20 -20 -20 -12 7 7 4 -15 -20 -10 -18 -13 -20 -20 -20 -20 -20 -20 -18 -19 -15 14 15 17 12 -20
-20 -20 -20 -20 -20 -20 -20 -20 -20 -20 4 -5 -20 -20 -20 -20 -20 -20 -20 -20 9 9 8 -17 5 1 -20 -20 -20 0 -20 -20 -20 -20 -20 -20 -8 17 15 18 17 14 16
-20 -20 -20 -20 -20 -20 -20 -20 -20 -20 -20 -7 -2 -20 -20 -6 11 -20 -20 -20 -13 11 -8 0 -1 2 -20 -19 2 -20 -20 -20 -20 -20 -20 -20 12 8 18 14 0 -20 -12
-20 -20 -20 -20 -20 -20 -20 -20 -20 -20 -20 17 48 40 34 -4 -2 7 1 -20 -20 -19 8 15 -16 -7 7 9 -3 -20 -20 -17 9 -20 -20 -20 -14 18 11 -20 -20 -20 -3
-20 -20 -20 -20 -20 -20 -20 -20 -20 -20 6 6 25 43 43 36 15 29 -1 23 -18 -10 14 6 -18 -3 -12 8 -0 -20 -20 10 -20 -20 -20 -20 10 17 14 13 12 12 0
-20 -20 -20 -20 -4 -20 -20 -20 -20 -20 29 13 19 43 43 37 21 36 33 -4 14 -1 -18 2 -20 6 10 10 2 -20 -20 -20 -20 -20 -20 -17 13 19 17 20 17 3 -20
-20 -20 -20 -10 -20 -20 -20 -20 -20 -20 25 -13 13 33 41 36 34 32 38 24 -20 -2 -0 12 -2 6 -19 -20 -20 -20 -20 -20 -20 -20 -20 1 18 14 12 -0 2 -20 -20
-20 -20 -20 4 -8 -19 -20 -9 -20 -20 -20 -20 12 18 26 27 27 31 32 28 -17 -9 -11 -10 -20 -20 -20 -20 -20 -20 -20 -20 -20 -20 -20 -3 3 -1 15 6 -1 -5 -19
-20 -20 -20 -11 13 -9 -11 -20 -20 -20 -20 -5 8 23 17 15 22 38 26 35 -13 -19 3 0 -20 -20 -20 -20 -20 -20 -20 -20 -20 -20 -20 7 13 0 11 -5 -6 -10 -4
-20 -20 -20 -7 13 9 15 -20 -20 -20 -19 -12 4 30 26 32 34 39 36 23 -20 2 -2 -20 -20 -20 -20 -20 -20 -20 -20 -20 -20 -20 -20 11 1 -10 -5 -8 -8 -8 -16
-20 -20 -20 -16 -20 7 14 -9 -20 15 -20 8 12 34 16 31 34 37 26 -20 -20 6 -4 -20 -20 -20 -20 -20 -20 -20 -20 -20 -20 -20 -20 2 5 -20 -4 -3 -2 -19 -20
-20 -20 -20 -18 -20 -18 -20 -4 20 16 -6 1 19 10 29 29 35 37 29 -0 -20 -1 -5 -20 -20 -20 -20 -20 -20 -20 -20 -20 -20 -20 -20 -20 -2 -19 -20 -20 -20 -20 -20
-20 -20 -20 -4 -20 -18 -20 -20 -7 22 15 15 5 10 15 32 34 28 24 -0 -16 -20 -20 -20 -20 -20 -20 -20 -20 -20 -20 -20 -20 -20 -20 -20 -20 -20 -20 -20 -20 -20 -20
-20 -20 -20 5 -20 -20 -20 -20 -16 -20 24 19 23 -14 16 31 31 26 33 5 0 -3 19 -12 -20 -20 -20 -9 -20 -20 -20 -20 -20 -20 -20 -20 -20 -20 -17 -20 -20 -20 -20
-20 -20 -20 -13 -13 4 -20 -20 -20 14 6 17 17 4 8 27 35 23 29 -8 -5 -14 -20 -14 -17 -20 -20 -20 -20 -20 -20 -20 -20 -20 -20 -20 -20 -20 -20 -20 -20 -20 -20
-20 -20 -20 -10 -20 -0 -19 -5 -7 -16 8 4 -15 29 -3 6 7 28 25 -1 15 -7 3 5 6 -18 -16 -15 -20 -20 -20 -20 -20 -20 -20 -20 -20 -20 -20 -20 -20 -20 -20
-20 -20 -20 -5 -6 -20 -19 -13 -20 -20 -4 -20 -6 9 17 -2 24 29 30 14 2 3 1 -19 -9 -6 5 6 1 -4 -17 -10 -20 -20 -20 -20 -20 -20 -20 -20 -20 -20 -20
-20 -20 -20 8 2 -5 -17 -13 -16 -10 11 18 10 14 23 11 15 23 25 27 15 -3 -16 -15 -20 10 15 4 17 19 10 -19 -20 -20 -20 -20 -20 -20 -20 -20 -20 -20 -20
-20 -20 -20 -12 5 -4 -4 -10 -12 1 6 16 21 24 25 33 24 20 24 30 26 27 -18 6 12 15 9 17 0 -20 -20 -20 -20 -20 -20 -20 -20 -20 -20 -20 -20 -20 -20
-20 -20 -20 -18 -16 -1 -11 -13 -15 -7 9 19 26 29 16 22 14 24 27 23 27 20 26 20 14 -0 4 -18 -20 -20 -20 -20 -20 -20 -20 -20 -20 -20 -20 -20 -20 -20 -20
-20 -20 -20 7 -5 -18 1 17 -8 -14 -10 7 9 22 30 34 30 29 28 26 26 26 30 -14 -20 -20 -20 -20 -3 -20 -9 -20 -20 -20 -20 -20 -20 -20 -20 -20 -20 -20 -20
-20 -20 -14 8 -19 -19 -6 -9 -20 -20 -20 -17 16 26 16 -12 6 14 13 17 24 15 -4 -20 -20 -20 -20 5 -20 -13 -2 -20 25 3 5 -15 -20 -20 -20 -20 -20 -20 -20
-20 -20 -19 12 -10 -7 4 -17 -20 -20 -20 -0 -4 -20 -20 -13 18 17 16 -6 1 -2 -16 -20 -20 -20 -20 12 17 -20 -20 -20 -20 -20 -20 -20 -20 -20 -20 -20 -20 -20 -20
-20 -20 -20 8 -2 6 1 3 -16 -20 -20 -1 16 -8 -20 -20 -15 -16 -7 8 -5 -17 10 11 27 -14 27 21 13 -20 -20 -20 -20 -20 -20 -20 -20 -20 -20 -20 -20 -20 -20

GFSSE_prec_radar_096.txt.gz
Reflectivity
-20 -20 -20 -20 -20 -20 -20 -20 -20 -20 -20 -20 -20 -20 -20 -20 -20 -20 -20 -10 -20 -20 -16 -20 -20 -20 -12 1 0 -20 1 -1 4 6 9 -0 0 5 2 -20 -20 -20 -20
-20 -20 -20 -20 -20 -20 -20 -20 -20 -20 -20 -20 -20 -20 -20 -20 -20 -20 -20 -20 -20 -6 11 -20 -8 8 24 2 -20 -20 -20 -19 -18 -20 14 24 17 1 8 -20 -20 -19 -20
-20 -20 -20 -20 -20 -20 -20 -20 -20 -20 -20 -20 -20 -17 -20 -20 -20 -20 -20 -20 -20 1 9 6 13 17 13 -19 -20 -20 -20 -20 -20 -20 -8 1 8 22 -1 -20 -20 -7 12
-20 -20 -20 -20 -20 -20 -20 -20 -20 -20 -20 -13 -19 -20 -20 -20 -20 -20 -20 -20 -20 3 3 7 15 12 7 -20 -20 -20 -20 -20 -20 -20 -20 -9 -20 12 3 6 2 9 6
-20 -20 -20 -20 -20 -20 -20 -20 -20 -9 5 6 -12 -20 -12 -12 -4 -20 -20 -20 -20 -20 -8 13 14 12 -17 -20 -20 -20 -20 -20 -20 -20 -20 -0 13 14 11 11 12 11 12
-20 -20 -20 -20 -20 -20 -20 -20 -20 -20 -19 -20 -20 -20 -20 3 -20 -20 27 3 10 -20 8 13 17 -4 -20 -20 -20 -20 -20 -20 -20 -20 -16 -2 6 10 3 14 0 12 14
-20 -20 -20 -20 -20 -20 -20 -20 -20 -15 -20 -4 -11 30 20 -14 10 29 26 35 28 13 -9 14 4 -20 -20 -15 -20 -20 -20 -20 -17 6 8 13 -19 -14 11 14 -15 -12 13
-20 -20 -20 -20 -20 -20 -11 6 -20 16 -20 -9 13 25 -0 22 -3 -2 35 33 34 24 -6 -0 -18 -20 -11 -20 -20 -20 -20 -20 -1 11 9 1 -12 -4 11 18 17 16 8
-20 -20 -20 -20 -0 14 -20 -14 15 33 -14 12 5 -10 -20 -16 -20 -20 29 40 35 14 -18 -20 -20 -20 -3 -20 -20 -14 -20 -20 2 9 -1 8 -18 12 14 4 -0 14 15
-20 -20 -20 -20 -20 -20 -20 -20 -20 19 17 -20 15 4 -20 -20 -20 -20 -1 17 38 4 -5 -20 -20 -20 -20 -20 -19 -6 -15 15 4 -2 -15 -20 11 12 17 -7 10 19 20
-20 -20 -20 -20 -20 -20 -20 -2 13 20 14 13 -16 -20 -20 -20 -20 6 5 37 40 20 -20 -20 -20 -20 -20 -20 -20 -19 0 -10 0 -20 -20 5 13 11 3 2 12 7 8
-20 -20 -20 -20 -20 -20 -20 -10 -0 2 11 -19 -20 -20 -20 -20 -20 21 32 34 33 34 -18 -20 -15 -20 -20 -20 -20 1 2 -3 4 -6 -20 5 4 1 -20 19 20 12 3
-20 -20 -20 -20 -20 -20 -20 -20 -19 5 -19 -20 -20 -20 -20 -14 2 16 39 40 35 11 -20 -20 1 -20 -20 -7 8 28 -10 6 -13 -20 -20 -11 9 13 13 11 -2 4 -1
-20 -20 -20 -20 -20 -20 -20 -20 2 12 10 -20 -20 -19 17 16 29 31 31 34 31 17 -0 -20 -20 -20 -20 -2 20 -4 -20 -20 -20 -20 -20 -20 -5 8 -1 -7 -3 -12 -20
-20 -20 -20 -20 -20 -20 -20 -20 -18 -5 18 13 -20 1 19 16 32 20 29 38 34 7 -20 -20 -20 -20 -20 -8 4 -3 -20 -20 -20 -20 -20 -20 -20 -17 -20 -8 -15 -20 -20
-20 -20 -20 -20 -20 -20 -20 -20 -20 -5 -20 17 -18 -6 28 21 16 2 23 22 21 7 -18 -20 -20 -20 -20 -20 -20 -20 -20 -20 -20 11 -19 -20 -20 -20 -20 -20 -16 -20 -20
-20 -20 -20 -20 -20 -20 -20 -20 -18 11 6 5 9 -20 0 25 8 26 31 27 26 -19 -20 -20 -20 -20 -20 -20 -20 -20 -20 -20 -20 -12 -20 -20 -20 -20 -20 -20 -20 -20 -20
-20 -20 -20 -20 -20 -20 -20 -20 -20 0 -16 1 5 -20 15 29 22 19 27 28 20 -19 -5 -20 -20 -20 -20 -20 -8 -20 -20 -18 11 10 -4 -20 -20 -20 -20 -20 -20 -20 -20
-20 -20 -20 -20 -20 -20 -20 -20 -20 -20 -20 21 -17 -19 -16 9 28 22 25 20 22 19 -7 -20 -20 -20 -20 -12 -8 -18 -20 -20 -19 -9 7 -18 -20 -20 -20 -20 -20 -20 -20
-20 -20 -20 -20 -20 -20 -20 -20 -16 -20 -11 -14 22 18 -20 9 -0 29 28 3 -9 -14 -20 -20 -20 -20 -18 -20 -12 -3 7 -7 2 -12 -16 -12 19 4 -20 -20 -20 -20 -20
-20 -20 -20 -20 -20 -20 -20 -7 6 -19 -20 -5 24 7 26 8 -11 26 19 18 -15 -3 -18 -20 -16 -13 -8 -20 -20 0 12 6 12 15 -20 17 -13 -20 -20 -20 -20 -20 -20
-20 -20 -20 -20 -20 -20 -20 -20 -20 -20 -20 -18 6 13 7 30 29 15 18 21 9 17 9 -17 -20 -20 -20 -14 5 21 11 -11 -20 -19 -14 -4 -20 -20 -20 -20 -20 -20 -20
-20 -20 -20 -20 -20 -20 -20 -20 0 6 4 -5 -18 -20 -9 10 16 21 19 10 16 26 23 6 3 10 10 17 14 12 -1 -8 -4 -5 -7 -7 -20 -20 -20 -20 -20 -20 -20
-20 -20 -20 -20 -20 -20 -20 -20 -20 12 5 -7 -6 -7 -17 -17 21 21 30 25 20 22 27 25 15 -15 4 -20 -12 2 -8 -10 -17 8 -16 -20 -20 -20 -20 -20 -20 -20 -20
-20 -20 -20 -20 -20 -20 -20 -20 -19 -18 -20 -20 6 16 9 18 16 11 15 29 17 27 23 27 -6 -0 7 -14 13 -19 8 -1 -9 -1 -19 -19 -16 -19 -16 -20 -20 -20 -20
-20 -20 -20 -20 -18 -20 -20 -20 -20 6 -20 -20 -16 -4 10 21 21 24 17 29 24 17 19 23 20 20 -1 15 1 13 -10 2 0 19 6 3 -8 -20 -20 -20 -20 -20 -20

GFSSE_prec_radar_102.txt.gz
Reflectivity
-20 -20 -20 -0 2 -2 -20 -20 -20 -20 -20 -20 -20 -20 8 -20 -20 -20 -20 -20 -20 -20 -20 -20 -20 -20 -19 -1 -19 -20 -20 9 11 -20 -6 6 16 10 3 -20 -20 -20 -20
-20 -20 -20 -16 -20 -19 -20 -20 -20 -20 -20 -20 -10 9 -15 -20 -15 -20 -20 -20 -20 -20 -20 -20 -20 -20 -7 -18 -20 -20 -20 4 -17 -14 6 13 14 19 0 -20 -20 -20 -20
-20 -20 -20 -20 -20 -20 -20 -20 -20 -20 -17 -6 -20 -20 -20 -17 -20 -20 -20 -20 -20 -16 -11 -20 -20 -16 -1 -20 -20 -20 -20 7 -20 -20 -20 -0 3 14 5 -20 -20 -17 -16
-20 -20 -20 -20 -20 -20 -20 -20 -20 -20 -10 -3 -10 -20 -20 -9 -13 -20 -20 -20 -20 -11 3 -10 4 5 -2 -3 29 -20 -20 -20 -20 -20 -15 -2 5 7 -5 -20 1 -9 3
-20 -20 -20 -20 -20 -20 -20 -20 -20 -20 -20 -20 -13 6 -20 -2 -20 -20 -20 -20 -20 -20 17 -4 -1 3 -2 -13 -20 4 -20 -20 -20 -20 -10 4 -20 9 -3 -7 9 -8 4
-20 -20 -20 -20 -20 -20 -20 -20 -12 -20 -20 -20 -20 -20 -1 -3 1 -20 -20 -14 28 -20 -3 -20 23 -20 -11 -20 -20 -20 -20 -20 -20 -20 -20 -19 -20 -0 -20 -20 -20 -18 -2
-20 -20 -20 -20 -20 -11 -0 1 -1 -16 -20 -20 -20 -20 -20 -20 9 -20 -6 34 -4 -18 -16 -10 -20 -20 -20 -20 -20 -20 -20 -20 -20 -20 -20 -20 -20 -20 -20 -20 -16 9 -16
-20 -20 -20 -20 -20 -20 -8 -4 4 -13 -20 -20 -20 -20 -20 -20 -20 2 -6 18 7 14 -17 23 30 -20 -20 -18 -20 -20 -20 -20 -20 -20 -20 -20 -20 -20 -20 -3 6 13 7
-20 -20 -20 -20 -20 -10 -20 -20 1 -9 -20 -20 -20 -20 -20 -20 -20 -20 -20 -19 -20 -20 -16 -8 -7 3 12 9 -19 -20 -20 -20 -20 -20 -20 -20 -20 -12 1 18 6 12 10
-20 -20 -20 -20 -20 -20 4 3 7 4 -16 -20 -6 -20 -20 -20 -20 28 -17 -20 -20 10 -20 -12 4 11 -0 -20 -20 -20 -20 -20 -20 -20 -20 -20 -20 4 8 14 12 10 -19
-20 -20 -20 -20 -20 -20 -20 10 14 11 11 12 -9 -20 -17 -17 -20 -20 -20 -20 31 -20 24 26 11 28 -0 -20 -20 -20 -20 -20 -20 -20 -20 -20 -17 9 -6 -9 7 13 5
-20 -20 -20 -20 -20 -20 -20 -20 -3 2 -6 11 2 9 -5 -15 -19 1 6 15 20 -20 29 31 -20 27 -0 -9 -20 -20 -20 -20 -20 -20 -20 -14 8 16 10 15 12 19 15
-20 -20 -20 -20 -20 -20 -20 -14 -20 14 11 1 9 5 13 11 17 -11 -9 -5 3 24 24 29 -15 30 20 -14 -20 -20 -20 -20 -20 -20 -20 -9 11 11 12 18 10 13 17
-20 -20 -20 -20 -20 -20 -20 1 -9 -1 -20 -7 12 15 17 -18 19 -8 -20 -6 -11 22 23 19 16 28 8 -20 -20 -20 -20 -20 -20 -20 -17 17 7 9 19 9 11 17 9
-20 -20 -20 -20 -20 -20 -20 2 -3 -20 -20 -20 9 3 -2 -7 -12 -20 -20 6 0 5 12 21 26 28 12 -20 -20 -20 -20 -19 -20 -20 -9 -5 9 16 16 17 19 7 12
-20 -20 -20 -20 -20 -20 -20 -20 -20 -20 -20 -20 -20 -20 -1 -8 -20 -0 3 20 28 36 30 28 34 28 4 -20 -20 2 -4 -20 -20 -20 8 1 12 14 11 18 12 3 3
-20 -20 -20 -20 -20 -20 -20 -20 -12 -20 -3 -20 -20 -20 -20 -20 -20 -11 4 30 23 35 33 32 28 15 -20 3 -2 -20 -20 -20 -20 0 -2 -18 5 10 11 3 3 -2 -2
-20 -20 -20 -20 -20 -20 -20 -20 -20 2 6 8 -18 -20 -20 -20 -20 -5 13 30 28 32 32 26 28 15 -14 -7 -20 -20 -20 -20 -8 -2 -19 -20 -20 -20 -1 0 5 3 -4
-20 -20 -20 -20 -20 -20 -20 -20 -20 -5 10 2 -2 2 16 -20 -20 8 20 30 34 29 28 30 27 28 20 -7 -20 -20 -20 -20 -20 -20 -20 -20 -20 -18 -1 1 -17 -9 -1
-20 -20 -20 -20 -20 -20 -20 -20 -20 -20 -3 13 4 5 -17 -20 -19 -12 15 25 32 31 34 28 30 32 12 -20 -20 -20 -20 -20 -20 -20 -20 -20 -20 3 6 -20 -20 -20 -5
-20 -20 -20 -20 -20 -20 -20 -20 -15 -0 16 15 3 11 4 8 -20 28 -18 16 29 29 31 28 32 34 10 -20 -20 -20 -20 -20 -20 -20 -20 -20 -1 4 15 -2 -20 1 14
-20 -20 -20 -20 -20 -20 -20 -20 -20 -19 -7 -14 11 17 15 10 -0 10 -6 -6 32 32 28 29 30 24 14 8 4 -18 -20 -20 -19 -20 -16 1 -3 -20 -20 -20 -19 -9 -20
-20 -20 -20 -20 -20 -20 -20 -20 1 -14 -18 -20 3 -2 9 -4 13 21 25 25 4 28 32 33 34 26 4 4 5 -14 -20 -18 13 -4 4 1 -20 -20 -20 -20 -20 -20 -20
-20 -20 -20 -20 -20 -20 -20 -8 -11 -20 -20 -20 -20 6 -20 8 29 19 17 37 32 29 31 19 15 12 8 -7 3 -10 -12 6 -3 8 -5 -20 -20 -20 -20 -20 -20 -20 -20
-20 -20 -20 -20 -20 -20 13 -18 -18 -20 -20 -20 -20 -20 16 6 1 24 4 30 17 19 23 4 -20 -20 -10 2 12 3 2 15 -20 -4 -20 -20 -20 4 -14 -20 -20 -20 -20
-20 -20 -20 -20 -20 5 9 -20 -20 -20 -20 -20 -20 -20 -20 -20 -1 18 33 15 15 28 30 1 7 -16 -6 -0 13 16 17 26 4 3 -20 -20 -20 10 -20 -20 -20 -20 -20

GFSSE_prec_radar_108.txt.gz
Reflectivity
-20 -20 -20 -20 -20 -20 -20 -20 -20 -20 -20 -20 -20 -20 -20 -20 -20 -7 -16 5 -7 3 3 -20 -9 -20 -20 -20 -20 -20 -20 -20 -20 -20 -5 17 7 -7 -20 -20 -20 3 -3
-20 -20 -20 -20 -20 -20 -20 -20 -20 -20 -20 -20 -20 -20 -20 -20 -20 -18 -20 1 6 6 -15 -20 2 -4 -20 -20 -20 -20 -20 -20 -20 -20 -20 23 -0 -10 -10 8 8 -5 -20
-20 -20 -20 -17 -20 -20 -20 -20 -20 -20 -20 -20 -20 -20 -20 -4 -20 -20 -13 1 5 6 -10 -20 -20 -20 -20 -20 -20 -20 -20 -20 -20 -20 -20 -20 9 0 -10 -20 -20 -20 -20
-20 -20 -20 -20 -20 -20 -20 -20 -20 -20 -20 -20 -20 -20 -20 -20 -20 -20 -20 -20 -16 4 -17 6 -18 -3 -20 -20 -20 -20 -20 -20 -20 -20 -20 -20 7 7 -14 -20 -20 -20 -20
-20 -20 -20 -20 -20 -20 -20 -20 -20 -20 -20 -20 -20 -3 -20 -20 -20 -20 -4 -20 -20 -0 -20 11 -2 -13 -20 -20 -20 -20 -20 -20 -20 -20 -15 -20 -20 8 -14 -14 -20 -20 6
-20 -20 -0 -20 -20 -20 -20 -20 -20 -20 -20 -20 -20 -20 -20 -20 -20 -20 -20 -12 -18 -20 -20 1 -20 -20 -20 -20 -20 -20 -20 -20 -20 -20 -20 -20 -14 7 -17 16 -19 -20 11
-20 -20 -20 -20 -20 -20 -20 -20 -20 -20 -20 -20 -20 -20 -20 -20 -20 -20 -20 -20 -9 -17 -20 -7 22 -20 -20 -20 -20 -20 -20 -20 -20 -20 -12 -15 11 12 6 -20 -20 -20 -20
-20 -20 -20 -20 -20 -20 -20 -20 -20 -20 -20 -20 -20 -20 -20 -20 -20 -20 -12 -20 -20 -20 0 -18 -5 -20 -20 -20 -20 -20 -20 -20 -20 -20 -13 8 -20 10 6 -20 -20 -20 -20
-20 -20 -20 -20 -13 -20 -20 -20 -20 -20 -20 -20 -20 -20 -20 -18 -7 -20 -20 -20 -20 15 -20 3 21 27 -15 -20 -20 -20 -20 -20 -20 -18 -12 -11 -20 5 -13 -20 -20 -20 -20
-20 -20 -20 -20 -20 -7 -1 -20 -20 -20 -20 -20 -20 -20 -19 -20 -20 -20 -20 -20 -20 -20 -20 -20 -17 -13 34 -19 -20 -20 -20 -20 -20 -18 -13 -19 -9 4 8 -20 -20 -20 -20
-20 -20 -20 -20 -18 -9 -15 -6 -13 -14 -17 -20 -16 -19 -1 9 -20 19 -3 -20 -20 -20 -20 -20 16 13 29 30 30 30 2 -20 -12 -20 3 6 2 5 -16 -20 -20 -20 -18
-20 -20 -20 -20 -20 -20 -16 2 6 9 5 10 7 6 -15 -10 23 -20 2 -20 -20 -1 -20 -20 -8 0 24 28 32 37 23 -17 -20 -20 -20 -15 -20 -19 -16 -11 -19 -15 -20
-20 -20 -20 -20 -20 -20 -20 -20 7 -8 11 13 13 14 16 26 14 20 11 -5 -14 -20 -20 -4 -4 1 -7 12 36 33 29 -14 -20 -20 -10 -20 7 -16 -19 -20 6 -2 -15
-20 -20 -20 -20 -20 -20 -20 -20 -20 -5 12 7 13 -9 -3 7 8 23 25 -2 4 17 20 21 5 25 6 25 33 30 30 -15 -20 -10 -7 -18 4 -20 1 1 2 -7 11
-20 -20 -20 -20 -20 -20 -20 -20 -20 -10 6 -13 4 15 2 3 -19 11 -1 -14 -20 -20 17 26 25 -1 -1 17 21 25 17 8 -20 -20 -20 8 12 -10 1 -20 13 9 13
-20 -20 -20 -20 -11 -20 -12 -17 -20 -20 -20 9 7 7 8 12 -6 17 26 -10 -6 -11 28 16 23 6 -3 6 16 24 22 -1 -20 -20 -20 4 14 1 13 -3 14 10 11
-20 -20 -20 -20 -20 -20 -20 -20 -20 -20 -20 5 -12 -20 7 -10 6 21 24 14 2 2 5 25 12 14 -13 35 19 10 -5 -20 -20 -20 -20 -18 -6 12 11 -20 -20 14 10
-20 -20 -20 -20 -20 -20 -20 -20 -20 -20 -6 -2 -20 -20 -16 -14 6 2 16 16 6 -4 10 7 22 35 21 16 22 3 6 -1 -20 -20 -20 3 -20 -14 -18 -11 -17 15 9
-20 -20 -20 -20 -20 -20 -20 -20 -6 -20 -20 3 -2 -1 -20 -20 0 0 9 3 4 -20 -5 8 9 23 29 28 31 17 -10 15 -17 -20 -20 -20 -18 -20 -11 -6 -1 13 7
-20 -20 -20 -20 -20 -20 -12 -1 -16 -5 -14 -5 1 -13 -0 0 -5 -1 8 15 -19 20 0 28 22 27 36 26 29 25 -9 0 -20 -20 -20 -20 -20 4 -20 -20 -9 -8 -16
-20 -20 -20 -20 -20 -20 1 -20 -20 -20 -19 -9 3 -10 1 1 8 4 3 -6 -20 -20 14 21 18 29 35 37 25 21 24 17 1 -20 -20 -20 -20 -20 7 -20 -20 -20 -20
-20 -20 -20 -20 -20 -20 -15 -20 -3 1 -15 2 1 7 4 5 7 2 2 -1 1 14 36 6 15 32 32 26 24 23 7 8 -1 -17 -20 -20 4 -20 -9 -20 -20 -17 -14
-20 -20 -20 -20 -20 -20 -20 -10 -6 1 2 -1 4 3 -0 9 5 -3 2 -6 14 -11 17 30 19 26 22 26 15 24 8 20 16 9 -7 -20 -10 -20 -20 -20 -20 -6 -20
-20 -20 -20 -20 -20 -20 -20 -20 -16 -20 -20 -20 -2 -6 3 5 2 5 4 17 -20 22 26 20 24 27 29 21 21 30 22 16 13 10 9 -20 -20 -16 -20 -20 -20 -20 -20
-20 -20 -20 -20 -20 -20 -20 -19 -10 -20 -20 -20 -20 -6 2 5 3 11 -20 -20 -20 12 13 18 21 29 28 27 28 30 25 19 -12 -11 4 -9 -19 -20 -20 -20 -20 -20 -20
-20 -20 -20 -20 -20 -19 -20 -12 -2 -20 -20 -20 -20 0 -18 -4 7 -1 -20 -15 -20 -5 7 9 17 20 31 32 31 27 28 24 12 13 7 9 6 -11 -20 -20 -20 -20 -20

GFSSE_prec_radar_114.txt.gz
Reflectivity
-20 -20 -20 -20 -20 -20 -20 -20 -20 -20 -20 -20 -20 -20 -20 -20 -20 -20 -20 -20 -20 -20 -20 -20 -20 -20 -20 -20 -20 -20 -20 -20 -20 -20 -9 -12 -20 -20 -20 6 -20 -12 -20
-20 -20 -20 -20 -20 -20 -20 -20 -20 -20 -20 -20 -20 -20 -20 -20 -20 -20 -20 -20 -20 4 10 -20 -20 -20 -20 -20 -20 -20 -20 -20 -20 -20 -20 -20 -20 -20 -20 4 -20 -20 -20
-20 -20 -20 -20 -20 -20 -20 -20 -20 -20 -20 -20 -20 -20 -20 -20 -20 -20 -20 -20 -20 9 5 6 -3 -20 -20 -20 -20 -20 -20 -20 -11 -20 -20 -20 -20 -17 -15 -20 -20 -20 -20
-20 -20 -20 -20 -20 -20 -20 -20 -20 -20 -20 -20 -20 -20 -20 -20 -20 -20 -20 -20 -20 -20 -15 3 -12 -19 -20 -20 -20 -15 -20 -20 -20 -20 -11 -17 -14 -11 -20 -20 -9 0 -5
-20 -20 -20 -20 -20 -20 -20 -20 -20 -20 -12 -20 -20 -20 -20 -20 -20 -20 -20 -20 -20 -20 -20 5 -20 -20 -20 -20 -20 -20 -20 -20 -20 -20 -20 -20 12 -3 -20 -13 23 -20 -8
-20 -20 -20 -20 -20 -20 -20 -20 -20 -20 -1 -3 -20 -20 -20 -20 -20 -20 -20 -20 -20 -20 -0 -20 -10 22 23 11 -20 -20 -20 -20 -20 -5 -3 -3 -16 -20 -19 -20 10 -20 11
-20 -20 -20 -20 -20 -20 -20 -20 -20 -20 -20 -20 -20 -20 -20 -20 -20 -20 -20 -20 -20 -20 10 6 -20 -20 -20 -20 -20 -20 -20 -20 -20 15 -0 -20 16 1 -20 -20 -20 -16 -14
-20 -20 -20 -20 -20 -20 -20 -20 -20 -20 -20 -20 -20 -20 -19 -20 -20 -18 -20 -20 -20 -20 -20 -20 -20 -20 -20 -20 -20 -20 -20 -20 -20 32 32 -20 -20 0 9 -20 -1 -20 -20
-20 -20 -20 -20 -20 -20 -20 -20 -20 -20 -20 -1 -20 -3 -20 -20 -20 27 -18 -13 -7 -20 -1 -19 26 -20 -20 -20 -12 -0 -17 22 -20 27 -17 -20 -20 17 12 -0 -20 -20 -20
-20 -20 -20 -20 -20 -20 -20 -20 -20 -20 -20 -20 -20 7 -20 -20 -20 -20 -20 -20 -15 -18 -12 -20 -20 -20 -20 31 -0 6 17 18 -20 36 -20 -20 -19 15 11 11 -20 -20 -20
-20 -20 -20 -20 -20 -20 -20 -20 -20 -20 -20 -20 -20 -20 -18 -20 -20 -20 -20 -20 -20 -20 -20 -20 -20 -20 -20 -20 -20 -1 20 -3 -3 27 -15 -20 5 -20 2 -1 -20 -20 -20
-20 -20 -20 -20 -20 -20 -20 -20 -20 -20 -20 -20 -20 -20 -20 -20 -20 -20 -20 -20 -20 -20 -20 -20 -20 -20 -7 -20 -20 -20 -0 22 -1 23 31 -20 21 -20 -3 -0 -11 -20 -20
-20 -20 -20 -20 -20 -20 -20 -20 -20 -20 -20 -20 -20 -20 -20 -20 -20 -20 -20 -20 -20 -20 -20 -20 -20 -20 -20 -20 -20 -20 -16 -13 20 34 39 12 11 -13 1 -20 3 -10 -20
-20 -20 -20 -20 -20 -20 -20 -20 -20 -20 -20 -20 -20 -20 -20 -20 -20 -20 -20 -20 -20 -20 -20 -20 -20 -20 -19 -20 -20 -20 -20 -20 -20 -18 10 -7 2 -7 9 10 5 6 -20
-20 -20 -20 -20 -20 -20 -20 -20 -20 -20 -20 -20 -20 -20 -20 -20 -20 -20 -20 -17 -20 -20 -20 -20 -20 -20 -14 -11 -1 -20 -20 -20 -15 30 37 18 16 -19 -16 9 6 7 -20
-20 -20 -20 -20 -20 -20 -20 -20 -20 -20 -20 -20 -20 -20 -20 -20 -20 -20 -20 -20 -6 -20 -20 -9 -20 -20 -13 -20 -20 -9 -20 -20 -11 29 36 24 -20 -7 -20 -0 9 7 -18
-20 -20 -20 -20 -20 -20 -20 -20 -20 -20 -20 -20 -20 -20 -6 -19 -1 -20 -20 -20 -20 -20 -20 -20 -19 18 -10 -15 -20 -19 15 13 26 16 26 12 9 13 -20 -20 10 10 10
-20 -20 -20 -20 -20 -20 -20 -20 -20 -20 -20 -20 -20 -20 -18 -5 -18 -20 -20 -20 -20 -20 -13 3 10 9 -15 11 -15 26 20 17 19 15 21 -14 -15 6 -20 -20 12 3 14
-20 -20 -20 -20 -20 -20 -20 -20 -20 -20 -20 -20 -20 -20 -20 -2 -1 -0 -20 -17 -20 -20 -15 -14 1 10 -20 -13 -4 -19 29 23 12 24 16 -10 -4 -8 -20 9 0 5 -20
-20 -20 -20 -20 -20 -20 -20 -20 -20 -20 -20 -20 -20 -20 -20 -13 0 1 -20 -19 -17 2 -12 -18 -18 5 -14 -16 -4 2 35 24 21 16 6 -5 3 11 2 9 10 -2 7
-20 -20 -20 -20 -20 -20 -20 -20 -20 -20 -20 -20 -20 -20 -20 -12 0 -7 -20 -20 -9 -18 -20 -20 -20 -1 7 -19 21 22 31 32 27 22 4 12 -12 -6 9 1 -20 1 -2
-20 -20 -20 -20 -20 -20 -20 -20 -20 -20 -20 -20 -20 -20 -19 -20 -16 -20 -20 -20 -20 -20 -20 -20 -20 -20 -20 -5 18 21 19 34 21 21 19 13 -6 -14 2 1 4 -20 -20
-20 -20 -20 -20 -20 -20 -20 -20 -20 -20 -20 -20 -20 -20 -0 -14 -20 -14 -20 -18 -12 -20 5 -20 -20 -20 -20 -20 7 25 29 22 11 15 16 8 18 -16 -11 12 6 -20 -20
-20 -20 -20 -20 -20 -20 -20 -20 -20 -20 -20 -20 -20 -20 3 -16 -20 -20 -10 -11 -20 -17 -18 -9 -12 -20 -20 -20 8 22 22 21 27 19 5 3 21 9 -20 12 4 -20 -20
-20 -20 -20 -20 -20 -20 -20 -20 -20 -20 -20 -20 -6 -4 18 7 5 9 -1 -11 -20 -20 -19 -20 -18 -20 -20 1 -5 -2 15 20 23 33 27 16 11 21 6 -20 -1 -20 -20
-20 -20 -20 -20 -20 -20 -20 -20 -20 -20 -20 -20 -14 -11 -19 2 8 3 6 -20 -19 -17 -20 -20 -20 -20 -20 2 3 -2 28 33 23 16 23 27 22 22 2 -19 -11 -20 -20

GFSSE_prec_radar_117.txt.gz
Reflectivity
-20 -20 -20 -20 -20 -20 -20 -20 -20 -20 -20 -20 -20 -20 -20 -20 -20 -20 -20 -20 -20 -20 -20 -20 -20 -17 -20 -20 -17 -20 -20 -20 -12 -5 10 4 -1 -20 -20 -20 -20 -20 -20
-20 -20 -20 -20 -20 -20 -20 -20 -20 -20 -20 -20 -20 -20 -20 -20 -20 -20 -20 -20 -20 -20 -20 -20 -20 -20 -20 -20 -20 -20 -20 -20 -20 -20 -20 -20 -1 2 -16 -20 -20 -13 -20
-20 -20 -20 -20 -20 -20 -20 -20 -20 -20 -20 -20 -20 -20 -20 -20 -20 -20 -20 -20 -20 -15 -15 -18 -20 -20 -20 -20 -20 -20 -20 -20 -20 -20 -20 -20 -20 1 -20 -20 -20 -20 -20
-20 -20 -20 -20 -20 -20 -20 -20 -20 -20 -20 -20 -20 -20 -20 -20 -20 -20 -20 -20 -20 -7 9 5 -20 -20 -20 -20 -20 -20 -20 -20 -20 -20 -20 -20 -20 -20 -10 -13 -7 -1 -10
-20 -20 -20 -20 -20 -20 -20 -20 -20 -20 -20 -20 -20 -20 -20 -20 -20 -20 -20 -20 -20 -20 -8 -20 -20 -20 -20 -20 -20 -20 -20 -20 -20 -20 -20 -20 -20 -20 11 17 -8 -9 -10
-20 -20 -20 -20 -20 -20 -20 -20 -20 -20 -9 -20 -20 -20 -20 -20 -20 -20 -20 -20 -20 -20 -11 -20 -20 -20 -20 -20 -20 -20 -20 -20 31 16 30 -20 -20 6 -20 -20 -20 10 -20
-20 -20 -20 -20 -20 -20 -20 -20 -20 -20 -19 -20 -20 -20 -20 -20 -20 -20 -20 -20 -20 -20 -20 -20 -20 -20 -20 -20 -20 -20 -20 -20 31 -20 -14 -10 -20 -20 -20 -20 -19 -16 -20
-20 -20 -20 -20 -20 -20 -20 -20 -20 -20 -20 -20 -20 -20 -20 -20 -20 -20 -20 -20 -20 -20 -13 -14 -20 -20 -20 -20 -20 -20 -20 -19 -20 -14 34 28 12 -16 -4 -7 -20 -20 -20
-20 -20 -20 -20 -20 -20 -20 -20 -20 -20 -20 -20 -20 -20 -20 -20 -20 -20 -20 -20 -20 -19 -20 -20 -20 -20 -20 -20 -20 -20 -20 -20 -20 -20 -4 23 32 4 5 -17 -20 -20 -20
-20 -20 -20 -20 -20 -20 -20 -20 -20 -20 -20 -20 -20 -19 -20 -20 -20 -20 -20 -20 -20 -20 -20 -20 -20 -20 -20 -20 -20 -20 -20 -20 -20 -20 16 26 31 6 12 16 -20 -20 -20
-20 -20 -20 -20 -20 -20 -20 -20 -20 -20 -20 -20 -20 -20 -20 -20 -20 -20 -20 -20 -20 -20 -20 -20 -20 -20 -20 -20 -20 -20 -20 -20 -6 -20 29 28 -15 6 17 13 9 -20 -20
-20 -20 -20 -20 -20 -20 -20 -20 -20 -20 -20 -20 -20 -20 -20 -20 -20 -20 -20 -20 -20 -20 -20 -20 -20 -20 -20 -20 -20 -20 -20 -20 -20 -19 -20 -20 10 -11 9 16 12 -6 -20
-20 -20 -20 -20 -20 -20 -20 -20 -20 -20 -20 -20 -20 -20 -20 -20 -20 -20 -20 -20 -20 -20 -20 -20 -20 -20 -20 -20 -20 -20 -20 -20 -13 -16 -19 19 21 -20 -17 7 -14 9 -14
-20 -20 -20 -20 -20 -20 -20 -20 -20 -20 -20 -20 -20 -20 -20 -20 -20 -20 -20 -20 -20 -20 -20 -20 -20 -20 -20 -20 -20 -20 -20 -20 -20 -20 -17 -16 26 15 -20 -0 9 -4 7
-20 -20 -20 -20 -20 -20 -20 -20 -20 -20 -20 -20 -20 -20 -20 -20 -20 -20 -20 -20 -20 -20 -20 -20 -20 -20 -20 -20 -20 -20 -20 -20 -20 -20 -20 -20 0 28 -9 11 10 11 -0
-20 -20 -20 -20 -20 -20 -20 -20 -20 -20 -20 -20 -20 -20 -20 -20 -20 -20 -20 -20 -20 -20 -20 -20 -20 -20 -20 -20 -20 -20 -20 -11 -20 -20 -20 10 37 34 -5 6 11 8 7
-20 -20 -20 -20 -20 -20 -20 -20 -20 -20 -20 -20 -20 -20 -20 -20 -20 -20 -20 -20 -20 -20 -20 -20 -20 -20 -20 -20 -20 -20 -20 23 -20 -18 -14 22 26 26 -4 -10 11 -16 13
-20 -20 -20 -20 -20 -20 -20 -20 -20 -20 -20 -20 -20 -20 -20 -20 -20 -20 -20 -20 -20 -20 -20 -20 -20 -20 -20 -20 20 -18 -4 13 15 11 15 14 16 9 -16 1 1 -7 14
-20 -20 -20 -20 -20 -18 -20 -20 -20 -20 -20 -20 -20 -20 -20 -20 -20 -20 -20 -20 -20 -20 -20 -20 -20 -20 -20 -20 -20 -2 14 -20 21 18 18 -7 14 -19 -17 8 -4 -13 13
-20 -1 7 -20 -20 -13 -20 -20 -20 -20 -20 -20 -20 -20 -20 -20 -20 -4 -20 -20 -20 -20 -20 -20 -20 -20 -13 -20 -13 -16 4 9 19 23 2 17 18 -4 -4 11 6 11 13
-20 -20 -20 -20 -18 -20 -20 -20 -20 -20 -20 -20 -20 -20 -20 -20 -20 -2 7 -20 1 -20 -20 -20 -20 -4 -20 -20 -18 2 2 15 -20 19 8 14 -12 20 -20 14 -8 11 12
-20 -20 -20 -20 -20 -20 -20 -20 -20 -20 -20 -20 -20 -20 -20 -20 -20 -20 -2 -4 -4 10 -20 -20 -20 -18 -8 -17 -2 -4 6 28 13 9 21 9 3 -7 6 -20 -14 2 9
-20 -20 -20 -20 -20 -20 -20 -20 -20 -20 -20 -20 -20 -20 -16 -20 -20 -20 -20 11 -1 -20 -20 -6 -1 -20 -14 -3 -11 -8 -4 -9 14 24 28 12 2 -13 18 -20 -20 -20 -15
-20 -20 -20 -20 -20 -20 -20 -20 -20 -20 -20 -20 -20 -20 -20 -20 -20 -20 -20 1 -11 -20 -20 -20 -18 -7 -9 13 6 -10 -20 -13 -2 21 22 17 -6 3 21 13 -15 -20 -20
-14 -19 -20 -20 -20 -20 -20 -20 -20 -20 -20 -20 -20 -20 -20 -3 7 12 14 -20 3 -20 -20 -20 -20 -0 -4 -20 -20 2 -20 -20 25 35 21 14 24 26 29 17 14 -6 -20
-20 -20 -20 -20 -20 -20 -20 -20 -20 -20 -20 -20 -20 -20 -20 -20 7 15 11 5 7 -20 -20 -20 -20 -20 -2 -20 -20 -20 -20 -7 -14 23 31 27 28 29 29 14 7 12 5

GFSSE_prec_radar_123.txt.gz
Reflectivity
-20 -20 -20 -20 -20 -20 -20 -20 -20 -20 -20 -20 -20 -20 -20 -20 -20 -20 -20 -20 -16 -20 -20 -20 -20 -20 -20 -20 -20 -20 -20 -20 -20 -8 9 3 8 10 -15 -20 -20 -16 -20
-20 -20 -20 -20 -20 -20 -20 -20 -20 -20 -20 -20 -20 -20 -20 -20 -20 -20 -20 -20 -20 -20 -20 -20 -20 -20 -20 -20 -20 -20 -20 -20 -20 13 -16 -8 -13 9 21 -18 -20 -20 -4
-20 -20 -20 -20 -20 -20 -20 -20 -20 -20 -20 -20 -20 -20 -20 -20 -20 -20 -20 -20 -20 -20 -20 -20 -20 -20 -20 -20 -20 -20 -20 -20 -20 -20 -20 -20 0 18 -6 -20 -20 -7 -18
-20 -20 -20 -20 -20 -20 -20 -20 -20 -20 -20 -20 -20 -20 -20 -20 -20 -20 -20 -20 -20 -20 -20 -20 -20 -20 -20 -20 -20 -20 -20 -20 -20 -20 -20 -20 -20 18 -1 -20 -5 0 -15
-20 -20 -20 -20 -20 -20 -20 -20 -20 -20 -20 -20 -20 -20 -20 -20 -20 -20 -20 -20 -20 -20 -20 -20 -20 -20 -20 -20 -20 -20 -20 -20 -20 -20 -20 -12 -16 12 -1 -14 -0 -20 -20
-20 -20 -20 -20 -20 -20 -20 -20 -20 -20 -20 -20 -20 -20 -20 -20 -20 -20 -20 -20 -20 -20 -20 -20 -20 -20 -20 -20 -20 -20 -20 -20 -20 -20 -20 -20 -20 9 9 -17 -20 -20 -19
-20 -20 -20 -20 -20 -20 -20 -20 -20 -20 -20 -20 -20 -20 -20 -20 -20 -20 -20 -20 -20 -20 -20 -20 -20 -20 -20 -20 -20 -20 -20 -20 -20 -20 -20 -20 -17 7 6 -18 -20 -5 6
-20 -20 -20 -20 -20 -20 -20 -20 -20 -20 -20 -20 -20 -20 -20 -20 -20 -20 -20 -20 -20 -20 -20 -20 -20 -20 -20 -20 -20 -20 -20 -20 -20 -20 -20 -20 6 18 9 -17 -20 -9 -7
-20 -20 -20 -20 -20 -20 -20 -20 -20 -20 -20 -20 -20 -20 -20 -20 -20 -20 -20 -20 -20 -20 -20 -20 -20 -20 -20 -20 -20 -20 -20 -20 -20 -20 -20 -20 -20 2 17 -10 -11 -20 -20
-20 -20 -20 -20 -20 -20 -20 -20 -20 -20 -20 -20 -20 -20 -20 -20 -20 -20 -20 -20 -20 -20 -20 -20 -20 -20 -20 -20 -20 -20 -20 -20 -20 -20 -20 -20 -20 -20 -14 18 -6 -20 -20
-20 -20 -20 -20 -20 -20 -20 -20 -20 -20 -20 -20 -20 -20 -20 -20 -20 -20 -20 -20 -20 -20 -20 -20 -20 -20 -20 -20 -20 -20 -20 -20 -20 -20 -20 -20 -5 -18 14 18 4 -20 -20
-20 -20 -20 -20 -20 -20 -20 -20 -20 -20 -20 -20 -20 -20 -20 -20 -20 -20 -20 -20 -20 -20 -20 -20 -20 -20 -20 -20 -20 -20 -20 -20 -20 -20 -20 -20 -20 2 9 1 5 -17 -20
-20 -20 -20 -20 -20 -20 -20 5 10 -3 -19 -20 -20 -20 -20 -20 -20 -20 -20 -20 -20 -20 -20 -20 -20 -20 -20 -20 -20 -20 -20 -20 -20 -20 -20 -20 -20 -1 -5 3 -3 4 -20
-20 -20 -20 -20 -20 -20 -20 -10 -20 -6 -13 -20 -20 -20 -20 -20 -20 -20 -20 -20 -20 -20 -20 -20 -20 -20 -20 -20 -20 -20 -20 -20 -20 -20 -20 -20 -20 21 30 31 -12 4 -20
-20 -20 -20 -20 -20 -20 -20 -20 -20 -20 11 -20 -7 -20 -20 -20 -20 -20 -20 -20 -20 -20 -20 -20 -20 -20 -20 -20 -20 -20 -20 -20 -20 -20 -20 -20 -20 -20 9 22 -10 0 1
-20 -20 -20 -20 -20 -20 -20 -20 -20 -20 -20 -20 -20 -20 -20 -20 -20 -20 -20 -20 -20 -20 -20 -20 -20 -20 -20 -20 -20 -20 -20 -20 -20 -20 -20 -20 -4 -20 10 14 15 26 20
-20 -20 -20 -20 -20 -20 -20 -20 -20 -20 -20 -20 -20 -20 -20 -20 -20 -20 -20 -20 -20 -20 -20 -20 -20 -20 -20 -20 -20 -20 -20 -20 -20 -20 -20 -20 -17 19 7 30 28 29 11
-20 -20 -20 -20 -20 -20 -20 -20 -20 -20 -20 -20 -20 -20 -20 -20 -20 -20 -20 -20 -20 -20 -20 -20 -20 -20 -20 -20 -20 -20 -20 -20 -20 -20 -20 -20 -20 -20 -12 21 34 32 28
-20 -20 -20 -20 -20 -20 -20 -20 -20 -20 -20 -20 -20 -20 -20 -20 -20 -20 -20 -20 -20 -20 -20 -20 -20 -20 -20 -20 -20 -20 -20 -20 -9 -11 -20 -20 -20 -20 -20 28 36 31 32
-20 -20 -20 -20 -20 -20 -20 -20 -20 -20 -20 -20 -20 -20 -20 -20 -20 -20 -20 -20 -20 -20 -20 -20 -20 -20 -20 -20 -20 -20 -20 -17 -0 9 13 -20 -20 -17 17 9 35 29 28
-20 -20 -20 -20 -20 -20 -20 -20 -20 -20 -20 -20 -20 -20 -20 -20 -20 -20 -20 -20 -20 -4 -20 -20 -20 -20 -1 -20 7 11 7 4 -20 3 -12 -20 15 -20 19 7 22 17 -10
-20 -20 -20 -20 -20 -20 -20 -20 -20 -20 -20 -20 -20 -20 -20 -20 -20 -20 -20 -20 -3 8 11 9 -2 5 19 12 -12 -11 -18 -16 8 -12 -16 -15 2 -19 -2 15 13 6 9
-20 -20 -20 -20 -20 -20 -20 -20 -20 -20 -20 -19 -10 8 -1 -14 -11 -20 -20 -20 7 -20 -6 1 10 20 13 1 -12 -7 -4 -9 -20 -19 -15 -6 3 17 -3 9 25 10 1
-18 -20 -20 -20 -20 -20 -20 -20 -20 -20 -18 -10 27 19 2 -12 -18 -20 -20 -10 14 18 13 11 11 13 8 14 -9 12 0 -20 -14 -16 -19 -17 2 21 18 24 13 21 5
-20 -20 -20 -20 -20 -20 -20 -20 18 -13 30 34 12 4 -20 -20 -20 -20 -20 8 10 13 13 9 19 13 12 9 8 2 -3 -20 -20 -1 -3 -1 8 -15 14 22 31 13 -17
-20 -20 -20 -20 -20 -20 -0 -20 10 10 28 29 30 -3 -13 -20 -12 2 13 14 9 13 15 13 17 18 10 10 -3 10 -3 -17 11 8 5 14 -20 1 18 35 27 0 -16

GFSSE_prec_radar_129.txt.gz
Reflectivity
-20 -20 -20 -20 -20 -20 -20 -20 -20 -20 -20 -20 -20 -20 -20 -20 -20 -20 -20 -20 -20 -20 -20 -20 -20 -20 -20 -20 -20 -20 -20 -20 -20 -20 -18 8 -4 -10 -18 -20 -20 -20 1
-20 -20 -20 -20 -20 -20 -20 -20 -20 -20 -20 -20 -20 -20 -20 -20 -20 -20 -20 -20 -20 -20 -20 -20 -20 -20 -20 -20 -20 -20 -20 -20 -20 -20 9 -19 -3 30 8 -19 25 30 14
-20 -20 -20 -20 -20 -20 -20 -20 -20 -20 -20 -20 -20 -20 -20 -20 -20 -20 -20 -20 -20 -20 -20 -20 -20 -20 -20 -20 -20 -20 -20 -20 -20 -20 -20 -20 -13 25 -18 -20 -19 -20 19
-20 -20 -20 -20 -20 -20 -20 -20 -20 -20 -20 -20 -20 -20 -20 -20 -20 -20 -20 -20 -20 -20 -20 -20 -20 -20 -20 -20 -20 -20 -20 -20 -20 -20 -20 16 -3 -17 -20 -20 -20 -19 -16
-20 -20 -20 -20 -20 -20 -20 -20 -20 -20 -20 -20 -20 -20 -20 -20 -20 -20 -20 -20 -20 -20 -20 -20 -20 -20 -20 -20 -20 -20 -20 -20 -20 -20 -20 -20 -2 7 -19 15 -15 -14 -19
-20 -20 -20 -20 -20 -20 -20 -20 -20 -20 -20 -20 -20 -20 -20 -20 -20 -20 -20 -20 -20 -20 -20 -20 -20 -20 -20 -20 -20 -20 -20 -20 -20 -20 -20 -20 -5 1 5 -20 -20 -20 -20
-20 -20 -20 -20 -20 -20 -20 -20 -20 -20 -20 -20 -20 -20 -20 -20 -20 -20 -20 -20 -20 -20 -20 -20 -20 -20 -20 -20 -20 -20 -20 -20 -20 -20 -20 3 25 7 -18 -20 -20 -20 -20
-20 -20 -20 -20 -20 -20 -20 -20 -20 -20 -20 -20 -20 -20 -20 -20 -20 -20 -20 -20 -20 -20 -20 -20 -20 -20 -20 -20 -20 -20 -20 -20 -20 -20 -20 -20 -20 -0 -2 -20 -20 -20 -20
-20 -20 -20 -20 -20 -20 -20 -20 -20 -20 -20 -20 -20 -20 -20 -20 -20 -20 -20 -20 -20 -20 -20 -20 -20 -20 -20 -20 -20 -20 -20 -20 -20 -20 -20 -20 -20 -20 -11 -20 -20 1 5
-20 -20 -20 -2 -2 -19 -20 -20 -20 -20 -20 -20 -20 -20 -20 -20 -20 -20 -20 -20 -20 -20 -20 -20 -20 -20 -20 -20 -20 -20 -20 -20 -20 -20 -20 -20 -20 -20 -0 -20 -13 -17 -19
-20 -20 -20 -20 -20 -4 -20 -14 -20 -20 -20 -20 -20 -20 -20 -20 -20 -20 -20 -20 -20 -20 -20 -20 -20 -20 -20 -20 -20 -20 -20 -20 -20 -20 -20 -20 -20 -20 -12 29 26 -15 1
-20 -20 -20 -20 -20 -20 -20 -17 -1 -12 -20 -20 -20 -20 -20 -20 -20 -20 -20 -20 -20 -20 -20 -20 -20 -20 -20 -20 -20 -20 -20 -20 -20 -20 -20 -20 -20 -20 -19 25 37 26 -20
-20 -20 -20 -20 -20 -20 -20 -20 -20 -6 -3 -10 -16 -20 -20 -20 -20 -20 -20 -20 -20 -20 -20 -20 -20 -20 -20 -20 -20 -20 -20 -20 -20 -20 -20 -20 -20 -20 11 31 -20 14 -20
-20 -20 -20 -20 -20 -20 -20 -20 -20 -20 -20 -20 -20 -20 -17 -20 -19 -20 -20 -11 -16 -20 -20 -20 -20 -20 -20 -20 -20 -20 -20 -20 -20 -20 -20 -20 -17 -16 -15 -19 -1 -9 -6
-20 -20 -20 -20 -20 -20 -20 -20 -20 -20 -15 -20 -20 -20 -20 -20 -20 -20 -20 -20 -18 -20 -20 -20 -20 -20 -20 -20 -20 -20 -20 -20 -20 -20 -20 -20 -20 -11 19 8 6 -20 10
-20 -20 -20 -20 -20 -20 -20 -20 -20 -20 -20 -17 -20 5 -2 -20 -20 -11 -2 -20 2 -20 -20 -20 -20 -20 -20 -20 -20 -20 -20 -20 -20 -20 -20 -20 -20 -20 -20 31 32 7 2
-20 -20 -20 -20 -20 -20 -20 -20 -20 -20 -18 -8 -5 -0 -5 -13 -20 -20 -20 -8 -19 1 -20 -20 -20 -20 -20 -20 -20 -20 -20 -20 -20 -20 -20 -20 -20 -19 -20 20 28 32 26
-20 -20 -20 -20 -20 -20 -20 -20 -20 -20 -20 -20 -20 -20 -8 12 -19 -20 -20 -20 -20 -3 -19 -20 -20 -20 -20 -20 -20 -20 -20 -20 -20 -20 -20 -20 -20 -20 2 -20 6 -16 29
-20 -20 -20 -20 -20 -20 -2 -20 -20 -20 -20 -20 -20 -20 -12 -19 -7 -20 -20 -20 -20 -20 -20 -13 -20 -20 -20 -20 -20 -20 -20 -10 -19 -20 -20 -20 -20 -20 2 -15 -20 -20 -5
-20 -20 -20 -20 -20 -20 -20 -2 -6 -18 -20 -20 -20 -20 -20 -20 -20 -19 -16 -14 -20 -20 -20 -15 -7 -17 -20 -20 -20 -14 3 -20 -19 -5 -20 -20 -20 -20 -20 -20 13 -20 -10
-20 -20 -20 -20 -20 -20 -20 -20 -20 -20 -4 -1 -20 -20 -2 -20 -20 -19 -20 -20 -20 -20 -20 -20 -20 -20 -20 -20 -20 -4 7 -6 -8 8 -9 -20 -20 -20 -20 -20 -20 -20 -4
-20 -20 -20 -20 -20 -20 -20 -20 -20 -20 -20 -20 -18 -20 -20 -20 -15 -20 -20 -20 -20 -20 -20 -20 -20 -20 -7 -20 -20 -19 -7 0 0 -4 3 2 1 3 -11 -20 -20 -20 -20
-20 -20 -20 -20 -20 -20 -20 -20 -20 -10 -20 -3 -12 -20 -20 -20 -20 -20 -20 -20 -20 -20 -20 -20 -20 -10 -9 -4 5 -4 -3 -10 -20 -5 -8 1 -1 8 -4 6 6 10 -20
-20 -20 -20 -20 -20 -20 -20 -20 -20 -20 -20 -20 -20 -5 -20 -4 -20 -9 3 1 -1 20 -12 -10 -20 -20 -10 -11 13 7 -20 -20 -20 -20 -20 -19 -19 -12 3 -16 -17 10 -9
-20 -20 -20 -20 -20 -14 -3 -20 -20 -20 -20 -20 -19 -8 -6 1 -20 -20 -14 28 31 29 17 12 -16 6 -1 -8 -18 9 12 -20 -20 -20 -20 -20 -5 -20 -20 -8 -17 1 5
-20 -16 -10 -20 -20 -20 -20 11 -2 1 -17 -20 -3 -16 18 -20 -15 26 34 37 48 36 30 23 28 18 2 -10 -18 -20 8 -6 -5 -2 -20 -20 -20 -20 -20 -3 9 -1 -5

GFSSE_prec_radar_132.txt.gz
Reflectivity
-20 -20 -20 -20 -20 -20 -20 -20 -20 -20 -20 -20 -20 -20 -20 -20 -20 -20 -20 -20 -20 -20 -20 -20 -20 -20 -20 -20 -20 -20 -20 -20 -20 -16 4 -20 32 12 16 -11 25 -18 -1
-20 -20 -20 -20 -20 -20 -20 -20 -20 -20 -20 -20 -20 -20 -20 -20 -20 -20 -20 -20 -20 -20 -20 -20 -20 -20 -20 -20 -20 -20 -20 -20 -20 -20 -20 -20 -16 -17 28 33 31 -20 -6
-20 -20 -20 -20 -20 -20 -20 -20 -20 -20 -20 -20 -20 -20 -20 -20 -20 -20 -20 -20 -20 -20 -20 -20 -20 -20 -20 -20 -20 -20 -20 -20 -20 -20 -20 -20 -20 -20 -9 -19 -20 -14 -20
-20 -20 -20 -20 -20 -20 -20 -20 -20 -20 -20 -20 -20 -20 -20 -20 -20 -20 -20 -20 -20 -20 -20 -20 -20 -20 -20 -20 -20 -20 -20 -20 -20 -20 -20 -3 -20 -20 4 -20 -20 27 -20
-20 -20 -20 -20 -20 -20 -20 -20 -20 -20 -20 -20 -20 -20 -20 -20 -20 -20 -20 -20 -20 -20 -20 -20 -20 -20 -20 -20 -20 -20 -20 -20 -20 -20 -20 -20 -20 -20 -20 -20 -6 2 -7
-20 -20 -20 -20 -20 -20 -20 -20 -20 -20 -20 -20 -20 -20 -20 -20 -20 -20 -20 -20 -20 -20 -20 -20 -20 -20 -20 -20 -20 -20 -20 -20 -20 -20 -20 -20 -20 -20 -20 -20 -20 -20 -20
-20 -20 -20 -20 -20 -20 -20 -20 -20 -20 -20 -20 -20 -20 -20 -20 -20 -20 -20 -20 -20 -20 -20 -20 -20 -20 -20 -20 -20 -20 -20 -20 -20 -20 -20 -20 24 -20 -20 -20 -20 -20 -20
-20 -20 -20 -20 -20 -20 -20 -20 -20 -20 -20 -20 -20 -20 -20 -20 -20 -20 -20 -20 -20 -20 -20 -20 -20 -20 -20 -20 -20 -20 -20 -20 -20 -20 -20 -20 -20 -14 -20 -20 -20 -20 -20
-20 -20 -20 -20 -20 -20 -20 -20 -20 -20 -20 -20 -20 -20 -20 -20 -20 -20 -20 -20 -20 -20 -20 -20 -20 -20 -20 -20 -20 -20 -20 -20 -20 -20 -20 -20 -20 -20 -20 -20 -20 -20 -20
-20 -20 -20 -20 -20 -20 -20 -20 -20 -20 -20 -20 -20 -20 -20 -20 -20 -20 -20 -20 -20 -20 -20 -20 -20 -20 -20 -20 -20 -20 -20 -20 -20 -20 -20 -17 -20 18 -13 -18 -20 -10 -20
-20 -20 -20 -20 -20 -20 -20 -20 -20 -20 -20 -20 -20 -20 -2 -20 -20 -18 -20 -20 -20 -20 -20 -20 -20 -20 -20 -17 -20 -20 -17 -20 -20 -20 -20 -20 -20 -20 3 27 -13 -6 6
-20 -20 -20 -20 -20 -20 -20 -18 -20 -20 -20 -20 -20 -20 -20 -20 -20 -20 -1 -20 -20 -20 -20 -20 -20 -20 -20 -20 -20 -20 -20 -20 -20 -20 -20 -20 -20 -20 11 -13 -20 -7 27
-20 -20 -20 -20 -20 -20 -20 -18 -20 -20 -20 -20 -20 -20 -20 -10 2 -1 8 5 -20 -20 -20 -12 -17 -20 -20 -20 -20 -20 -20 -20 -20 -20 -20 -20 -20 -20 -20 17 -20 6 -2
-20 -20 -20 -20 -20 -20 -20 -20 -8 -18 -20 -20 -20 -7 -20 -5 3 -20 3 2 1 -20 -20 -20 -20 -20 -20 -20 -20 -20 -20 -20 -20 -20 -20 -20 -20 -20 -20 22 -20 7 -20
-20 -20 -20 -20 -20 -20 -20 -20 -20 -20 -20 -20 -20 5 -20 -20 -12 -15 -11 -15 -18 -20 -20 -16 -20 -20 -20 -20 -20 -20 -20 -20 -20 -20 -20 -20 -20 -20 -20 -20 -16 8 -16
-20 -20 -20 -20 -20 -20 -20 -20 -20 -3 -20 -20 -20 -11 -4 -20 -20 0 -0 0 -3 -12 -20 -20 -20 -20 -20 -20 -19 -20 -20 -20 -20 -20 -20 -20 -20 -20 -20 -20 30 27 21
-20 -20 -20 -20 -20 -20 -20 -20 -20 -20 -20 -1 -19 -19 -2 -20 -20 -2 -9 -1 -15 4 -7 -20 -20 -20 -20 -20 -20 6 -20 -20 -20 -20 -20 -20 -20 -20 -20 -20 -20 28 29
-20 -20 -20 -20 -20 -20 -20 -20 -20 -20 -5 -20 -20 -20 -17 -20 -20 -2 -1 -20 -20 8 5 1 3 1 -2 -20 -20 -20 -20 -20 -14 9 -20 -20 -20 -20 -15 -20 -20 -20 6
-20 -20 -20 -20 -20 -20 -20 -20 -20 -20 -20 -20 -20 -11 -6 -20 -20 -20 -20 -16 -14 6 -9 -5 2 -2 -0 0 2 7 6 -5 -20 8 11 -12 -11 -20 -10 -4 -20 -20 -20
-20 -20 -20 -20 -20 -20 -20 -20 -20 -20 -11 -20 -20 -20 -13 -20 -20 -20 -16 -20 -20 -20 0 -10 1 3 1 1 -4 7 11 -15 2 -20 12 6 -20 -20 -7 -12 -17 -20 -20
-20 -20 -20 -20 -20 -20 -20 -9 -20 -20 -20 -20 -20 -20 -20 -20 10 -3 -20 -4 2 -20 -20 -5 -20 0 8 4 14 8 3 8 -3 -20 -4 11 -6 -20 -1 2 -6 13 -9
-20 -20 -20 -20 -20 -20 -20 -20 -20 -20 -20 -20 -20 -20 -20 -20 -12 -18 -20 -20 -20 -20 5 -12 1 -4 -9 5 6 10 10 -10 -4 6 -16 -1 4 1 -19 -16 -15 -4 18
-20 -20 -20 -20 -20 -20 -20 -20 -20 -20 -20 -20 -20 -20 -20 -20 -3 -7 2 -18 -5 1 6 -4 -20 -9 -19 -2 11 -6 12 -11 -20 -1 2 -6 1 -20 -3 -8 -19 11 10
-20 -20 -20 -20 -20 -20 -20 -20 -20 -20 -20 -20 -20 -20 -20 -20 -20 -15 -20 -1 -1 -20 -19 -14 -20 -18 23 6 20 14 8 -19 -4 5 -20 -16 -20 -20 -20 -10 -3 2 -10
-20 -20 -20 -20 -20 -20 -19 -20 -20 -20 -20 -8 -20 -20 -19 -16 -20 -16 3 10 9 12 9 7 29 11 30 15 5 2 -0 -18 -20 -13 4 8 -19 -20 -20 -4 -18 -1 -0
-20 -20 -20 -20 -20 -20 31 7 -9 -20 -20 -17 -6 3 8 9 4 -3 -14 15 4 3 21 27 36 24 19 24 31 28 -11 9 -20 -20 -13 -20 -9 12 -20 -20 -20 -13 -5

GFSSE_prec_radar_135.txt.gz
Reflectivity
-20 -20 -20 -20 -20 -20 -20 -20 -20 -20 -20 -20 -20 -20 -20 -20 -20 -20 -20 -20 -20 -20 -20 -20 -20 -20 -20 -20 -20 -20 -20 -20 -20 -20 -20 9 -5 18 20 2 -5 12 10
-20 -20 -20 -20 -20 -20 -20 -20 -20 -20 -20 -20 -20 -20 -20 -20 -20 -20 -20 -20 -20 -20 -20 -20 -20 -20 -20 -20 -20 -20 -20 -20 -20 -20 -20 -20 -20 -20 -18 -9 19 19 13
-20 -20 -20 -20 -20 -20 -20 -20 -20 -20 -20 -20 -20 -20 -20 -20 -20 -20 -20 -20 -20 -20 -20 -20 -20 -20 -20 -20 -20 -20 -20 -20 -20 -20 -20 -19 -20 -20 -20 -20 -6 -20 -18
-20 -20 -20 -20 -20 -20 -20 -20 -20 -20 -20 -20 -20 -20 -20 -20 -20 -20 -20 -20 -20 -20 -20 -20 -20 -20 -20 -20 -20 -20 -20 -20 -20 -20 -20 27 -20 -20 -20 -20 -20 -10 -20
-20 -20 -20 -20 -20 -20 -20 -20 -20 -20 -20 -20 -20 -20 -20 -20 -20 -20 -20 -20 -20 -20 -20 -20 -20 -20 -20 -20 -20 -20 -20 -20 -20 -20 9 -15 -6 -20 -20 -20 -20 -20 -8
-20 -20 -20 -20 -20 -20 -20 -20 -20 -20 -20 -20 -20 -20 -20 -20 -20 -20 -20 -20 -20 -20 -20 -20 -20 -20 -20 -20 -20 -20 -20 -20 -20 -20 38 -20 -10 -20 -20 -20 -20 -20 -20
-20 -20 -20 -20 -20 -20 -20 -20 -20 -20 -20 -20 -20 -20 -20 -20 -20 -20 -20 -20 -20 -20 -20 -20 -20 -20 -20 -20 -20 -20 -20 -20 -20 -1 -20 -20 -20 -20 -20 -20 -20 -20 -20
-20 -20 -20 -20 -20 -20 -20 -20 -20 -20 -20 -20 -20 -20 -20 -20 -20 -20 -20 -20 -20 -20 -20 -20 -20 -20 -20 -20 -20 -20 -20 -20 -20 -20 -3 -7 -20 -20 -20 -20 -20 -20 -20
-20 -20 -20 -20 -20 -20 -20 -20 -20 -20 -20 -20 -20 -20 -20 -20 -20 -20 -20 -20 -20 -20 -20 -20 -20 -20 -20 -20 -20 -20 -20 -20 -20 -20 12 -20 -20 -20 -20 -19 -20 -20 -20
-20 -20 -19 -19 -20 -20 -20 -20 -20 -20 -20 -20 -20 -20 -20 -20 -20 -20 -20 -20 -20 -20 -20 -20 -20 -20 -20 -20 -20 -20 -20 -20 -20 -20 -20 -20 -20 -1 -20 -20 -20 -20 -18
-20 -20 -20 -20 -20 -20 -20 -20 -20 -20 -20 -20 -20 -20 -8 -20 -20 -20 -20 -20 -20 -20 -20 -20 -20 -20 -20 -17 -20 -20 -20 -20 -20 -20 -12 -9 -20 -20 -20 27 -14 -19 -20
-20 -20 -20 -20 -20 -20 -20 -20 -20 -20 -20 -20 -20 -20 -20 -20 -20 -20 -20 -20 -20 -20 -20 -20 -20 -20 -20 -20 -19 -20 -20 7 -20 -20 -20 -18 -20 -20 -20 -20 6 -1 -20
-20 -20 -20 -20 -20 -20 -20 -20 -20 -20 -20 -20 -20 -20 -20 -20 2 -20 -2 -16 -20 -20 -20 -20 -17 -20 -20 -7 -19 -20 -20 -13 -20 -17 -14 -20 -20 -20 -20 -20 -19 -20 -18
-20 -20 -20 -20 -20 -20 -20 -20 -20 -20 -20 -20 -20 2 -20 -17 -18 -2 -4 -9 -20 -20 -20 -20 -20 -20 -20 -14 10 -2 -20 -20 -20 -20 -5 -20 -20 -20 -20 -20 -14 5 -20
-20 -20 -20 -20 -20 -20 -20 -20 -20 -20 -20 -20 -20 -20 -20 -20 -1 -19 5 -10 -20 -20 -20 -20 -20 -20 -17 9 -20 2 -9 -19 -20 -20 -20 -20 -20 -20 -20 -20 -20 -20 3
-20 -20 -20 -20 -20 -20 -20 -20 -20 -20 -20 -20 -20 -20 -18 -20 3 -20 3 -20 -4 -20 -20 -20 -20 -20 -19 -8 -20 -7 -7 8 10 -9 -20 -13 -20 -20 -20 -20 -20 -13 16
-20 -20 -20 -20 -20 -20 -20 -20 -20 -20 -20 -20 -20 -20 1 -9 24 -20 7 -8 -18 -20 -20 -20 -20 -20 -20 -20 -19 -20 -16 -19 -14 4 -20 -20 -20 -20 -20 -20 -20 -20 -5
-20 -20 -20 -20 -20 -20 -20 -20 -20 -20 -20 -20 -20 -20 4 3 -18 -20 14 2 26 -18 -20 -20 -20 -20 -20 -20 -20 -20 -20 -20 -18 -19 -2 0 -20 -19 7 -17 -20 -20 -20
-20 -20 -20 -20 -20 -20 -20 -12 -20 -20 -20 -20 -20 -20 6 1 -17 -8 -20 -20 1 -20 5 -16 -20 -20 -20 -20 -20 -20 -20 -20 -20 -6 -1 -11 -13 -15 -10 -14 -11 -20 -20
-20 -20 -20 -20 -20 -20 -20 7 -12 -20 -20 -20 -20 -20 -4 -19 -15 2 -20 5 -10 13 10 5 -20 -20 -20 -20 -20 -20 -20 -20 -20 -20 -20 -16 -12 -20 -20 -19 -20 -20 -20
-20 -20 -20 -20 -20 -20 -20 -6 14 -20 -20 -20 -20 -20 -20 -11 -3 -0 -20 5 -16 6 9 -1 6 -4 -6 -20 10 3 5 10 8 -20 -20 -20 -20 -18 -10 -20 8 7 -20
-20 -20 -20 -20 -20 -20 -20 -8 1 -9 -20 -20 -20 -20 -20 -12 -20 6 -14 -20 -19 -20 6 1 9 0 4 10 7 11 -1 -2 -13 -20 -20 -20 -20 -20 -20 -3 -13 -5 10
-20 -20 -20 -20 -20 -20 -20 -10 -9 13 -20 -20 -20 -20 -20 -20 -20 -2 -3 -19 -20 -20 -18 16 -5 5 -4 11 11 -9 7 -20 -20 -20 -20 -20 -20 -20 -20 -20 -20 -17 -16
-20 -20 -20 -20 -20 -20 -20 -20 -4 10 -20 -20 -20 -20 -20 -20 -20 -2 -2 -5 -20 -11 -20 7 -0 2 -3 6 12 10 -20 14 -14 -2 2 -20 -16 -17 -13 -20 -20 -20 -13
-20 -20 -20 -20 -20 -20 -20 -20 9 29 -20 -20 -20 -20 -20 -20 -20 -20 -3 6 -5 13 -20 -20 2 25 17 29 10 21 19 4 -14 26 20 -10 12 -20 -20 -20 -20 -20 -20
-20 -20 -20 -20 -20 -20 -20 -20 29 -20 16 -20 -20 -20 -20 -20 -20 -20 -20 -17 9 -5 -20 -20 -11 18 -9 26 31 21 22 32 16 25 -14 6 19 12 -20 -20 -20 -6 -20

GFSSE_prec_radar_138.txt.gz
Reflectivity
-20 -20 -20 -20 -20 -20 -20 -20 -20 -20 -20 -20 -20 -20 -20 -20 -20 -20 -20 -20 -20 -20 -20 -20 -20 -20 -20 -20 -20 -20 -20 -20 -20 -20 -20 -20 -20 -18 -20 4 5 -20 13
-20 -20 -20 -20 -20 -20 -20 -20 -20 -20 -20 -20 -20 -20 -20 -20 -20 -20 -20 -20 -20 -20 -20 -20 -20 -20 -20 -20 -20 -20 -20 -20 -20 -20 -20 -20 -20 -20 -20 -20 25 -20 -15
-20 -20 -20 -20 -20 -20 -20 -20 -20 -20 -20 -20 -20 -20 -20 -20 -20 -20 -20 -20 -20 -20 -20 -20 -20 -20 -20 -20 -20 -20 -20 -20 -20 -20 -20 -20 -20 -20 -20 -20 -20 -20 -20
-20 -20 -20 -20 -20 -20 -20 -20 -20 -20 -20 -20 -20 -20 -20 -20 -20 -20 -20 -20 -20 -20 -20 -20 -20 -20 -20 -20 -20 -20 -20 -20 12 -20 11 -17 -17 -20 -20 -20 -20 -20 -20
-20 -20 -20 -20 -20 -20 -20 -20 -20 -20 -20 -20 -20 -20 -20 -20 -20 -20 -20 -20 -20 -20 -20 -20 -20 -20 -20 -20 -20 -20 -20 -20 -20 -20 26 27 7 -20 -20 -20 -20 -20 -20
-20 -20 -20 -20 -20 -20 -20 -20 -20 -20 -20 -20 -20 -20 -20 -20 -20 -20 -20 -20 -20 -20 -20 -20 -20 -20 -20 -20 -20 -20 -20 -20 -20 30 -1 7 -20 18 -20 -20 -20 -20 -20
-20 -20 -20 -20 -20 -20 -20 -20 -20 -20 -20 -20 -20 -20 -20 -20 -20 -20 -20 -20 -20 -20 -20 -20 -20 -20 -20 -20 -20 -20 -20 -20 -20 19 34 -19 -20 -16 -20 -20 -20 -20 -11
-20 -20 -20 -20 -20 -20 -20 -20 -20 -20 -20 -20 -20 -20 -20 -20 -20 -20 -20 -20 -20 -20 -20 -20 -20 -20 -20 -20 -20 -20 -20 -20 -20 31 -20 32 7 -20 -20 -20 -20 -20 -20
-20 -20 -20 -20 -20 -20 -20 -20 -20 -20 -20 -20 -20 -20 -20 -20 -20 -20 -20 -20 -20 -20 -20 -20 -20 -20 -20 -20 -20 -20 -20 -20 -20 -15 -20 21 -20 -20 -20 -20 -20 -20 -20
-20 -7 -20 -20 -20 -20 -20 -20 -20 -20 -20 -20 -20 -20 -20 -20 -20 -20 -20 -20 -20 -20 -20 -20 -20 -20 -20 -20 -20 -20 -20 -20 -20 -20 -20 -20 -20 -20 -20 -20 -20 -20 -20
-20 -20 -20 -20 -20 -20 -20 -20 -20 -20 -20 -20 -20 -20 -20 -20 -20 -20 -20 -20 -20 -20 -20 -20 -20 -20 -20 -20 -20 -20 -20 -20 -20 -14 -19 -20 -20 -20 -20 -20 -20 -20 -10
-20 -20 -20 -20 -20 -20 -20 -20 -20 -20 -20 -20 -20 -20 -20 -20 -20 -20 -20 -20 -20 -20 -20 -20 -20 -20 -20 -20 -20 -20 -20 -20 -8 -17 -17 -20 -20 -20 -20 -20 -20 -20 -20
-20 -20 -20 -20 -20 -20 -20 -20 -20 -20 -20 -20 -20 -20 -20 -20 -20 -20 -20 -20 -20 -20 -20 -20 -20 -20 -20 -20 -20 -20 -20 -20 -20 -20 -19 -20 -20 -20 -20 -20 -20 -20 -20
-20 -20 -20 -20 -20 -20 -20 -20 -20 -20 -20 -20 -20 -20 -20 -20 -20 -20 -10 -20 -20 -20 -20 -20 -20 -20 -20 -20 -20 -19 -20 -20 -14 3 -19 -20 -20 -20 -20 -20 -20 -20 -20
-20 -20 -20 -20 -20 -20 -20 -20 -20 -20 -20 -20 -20 -20 -20 -20 -20 -20 -20 -20 -20 -20 -20 -20 -20 -20 -20 -20 -13 -12 -20 3 -20 -10 -20 -3 -20 -20 -20 -20 -20 -20 -20
-20 -20 -20 -20 -20 -20 -20 -17 -1 -20 -20 -20 -20 -20 -20 -20 -20 -20 -20 -20 -20 -20 -20 -20 -20 -20 -20 -20 5 -3 4 -19 8 -18 -20 -20 2 -20 -20 -20 -20 -20 -20
-20 -20 -20 -20 -20 -20 -20 -15 12 -15 -20 -20 -20 -20 -20 -20 -20 -20 -20 -20 -11 -20 -20 -20 -20 -19 0 -20 8 8 -20 6 -13 13 -18 5 6 15 -15 -20 -20 -20 -20
-20 -20 -20 -20 -20 -20 -20 -20 -20 3 -20 -20 -20 -20 -16 -20 -20 -20 -20 -20 -7 -20 -20 -4 -20 -20 -20 -15 -20 -20 -20 -20 5 -20 1 -3 11 5 16 5 -17 -20 -20
-20 -20 -20 -20 -20 -20 -20 -20 -20 -14 -19 -20 -20 -20 9 -20 -20 -20 -20 -20 -20 -5 6 -7 -20 10 -20 -20 -20 4 -20 -14 -20 -20 -20 0 1 -12 -6 16 8 -12 -20
-20 -20 -20 -20 -20 -20 -20 -20 20 -20 -20 11 -12 -20 -15 -20 -20 -20 -11 -20 -20 -20 -4 -20 -14 2 -20 -20 -20 -20 -20 -20 -20 -1 -20 -20 -18 -19 -12 -20 4 -4 -20
-20 -20 -20 -20 -20 -20 -20 -20 -20 -16 -9 3 13 -16 -20 5 -20 -20 -20 -20 -20 -20 -15 -20 -20 9 -20 -20 7 -7 -20 14 -20 -20 -20 -20 -20 -20 -20 -20 -20 -20 -5
-20 -20 -20 -20 -20 -20 -20 -20 -20 12 7 -20 14 -16 -10 -20 -20 -20 -20 -18 -20 -20 -11 -20 -20 -20 9 16 -20 -20 -11 -13 -20 -20 -20 -20 -20 -20 -20 -5 -12 -17 -10
-20 -20 -20 -20 -20 -20 -20 -20 -20 9 7 17 3 10 -20 -20 -20 -20 -20 -0 -20 -20 -20 -3 -20 -20 -20 -20 -20 -20 -3 -18 -20 -20 -20 -20 -20 -20 -20 -20 -20 -15 -20
-20 -20 -20 -20 -20 -20 -20 -20 -20 -20 27 7 -20 6 9 -20 -20 -20 -20 -20 -20 -20 -20 -18 -20 -20 -20 -5 6 -1 -19 12 2 -8 15 -3 -20 -20 -20 -20 -20 -20 -20
-20 -20 -20 -20 -20 -20 -20 -20 -20 -20 -20 28 -18 33 15 -19 -13 -20 -20 -20 -20 -20 -20 -20 -20 -20 -20 -20 -20 -20 -20 0 21 13 -20 12 25 -19 -18 -20 -20 -20 -20
-20 -20 -20 -20 -20 -20 -20 -20 -20 -20 -20 -20 32 -9 37 12 -4 -20 -20 -20 -2 5 -20 -20 -20 -20 -20 -20 -18 -20 -20 -17 15 27 30 -7 29 25 4 -19 -20 -20 -20

GFSSE_prec_radar_141.txt.gz
Reflectivity
-20 -20 -20 -20 -20 -20 -20 -20 -20 -20 -20 -20 -20 -20 -20 -20 -20 -20 -20 -20 -20 -20 -20 -20 -20 -20 -20 -20 -20 -20 -20 -20 -20 -20 -20 -20 -20 -20 -20 -20 -20 -20 10
-20 -20 -20 -20 -20 -20 -20 -20 -20 -20 -20 -20 -20 -20 -20 -20 -20 -20 -20 -20 -20 -20 -20 -20 -20 -20 -20 -20 -20 -20 -20 -20 -20 -20 -20 -20 -20 -20 -20 -20 -20 -20 -20
-20 -20 -20 -20 -20 -20 -20 -20 -20 -20 -20 -20 -20 -20 -20 -20 -20 -20 -20 -20 -20 -20 -20 -20 -20 -20 -20 -20 -20 -20 -20 -20 -20 -20 -20 -20 -20 -20 -20 -20 -20 -20 -20
-20 -20 -20 -20 -20 -20 -20 -20 -20 -20 -20 -20 -20 -20 -20 -20 -20 -20 -20 -20 -20 -20 -20 -20 -20 -20 -20 -20 -20 -20 -20 -20 -20 -20 5 -20 -20 -20 -20 -20 -20 -20 13
-20 -20 -20 -20 -20 -20 -20 -20 -20 -20 -20 -20 -20 -20 -20 -20 -20 -20 -20 -20 -20 -20 -20 -20 -20 -20 -20 -20 -20 -20 -20 -20 -20 -20 -5 -10 -20 -20 -20 -20 -20 -20 -20
-20 -20 -20 -20 -20 -20 -20 -20 -20 -20 -20 -20 -20 -20 -20 -20 -20 -20 -20 -20 -20 -20 -20 -20 -20 -20 -20 -20 -20 -20 -20 -20 -20 -19 25 -12 -16 -20 -20 -20 -20 -20 -20
-20 -20 -20 -20 -20 -20 -20 -20 -20 -20 -20 -20 -20 -20 -20 -20 -20 -20 -20 -20 -20 -20 -20 -20 -20 -20 -20 -20 -20 -20 -20 1 -20 -20 -19 -20 -20 -11 -20 -20 -20 -20 -20
-20 -20 -20 -20 -20 -20 -20 -20 -20 -20 -20 -20 -20 -20 -20 -20 -20 -20 -20 -20 -20 -20 -20 -20 -20 -20 -20 -20 -20 -20 -20 -20 -20 -20 -20 -20 -20 -20 -20 -20 -20 -20 -20
-20 -20 -20 -20 -20 -20 -20 -20 -20 -20 -20 -20 -20 -20 -20 -20 -20 -20 -20 -20 -20 -20 -20 -20 -20 -20 -20 -20 -20 -20 -20 -20 -20 -20 -20 -20 -20 -20 -20 -20 -20 -20 -20
-20 -20 -20 -20 -20 -20 -20 -20 -20 -20 -20 -20 -20 -20 -20 -20 -20 -20 -20 -20 -20 -20 -20 -20 -20 -20 -20 -20 -20 -20 -20 -20 -20 -20 -20 -20 -20 31 -20 -20 -20 -20 -20
-20 -20 -20 -20 -20 -20 -20 -20 -20 -20 -20 -20 -20 -20 -20 -20 -20 -20 -20 -20 -20 -20 -20 -20 -20 -20 -20 -20 -20 -20 -20 -20 -20 -20 -20 -20 -19 -20 -20 -20 -20 -20 -20
-20 -20 -20 -20 -20 -20 -20 -20 -20 -20 -20 -20 -20 -20 -20 -20 -20 -20 -20 -20 -20 -20 -20 -20 -20 -20 -20 -20 -20 -20 -20 -20 -20 -20 -20 -20 11 -20 -20 -20 -20 -20 -20
-20 -20 -20 -20 -20 -20 -20 -20 -20 -20 -20 -20 -20 -20 -20 -20 -20 -20 -20 -20 -20 -20 -20 -20 -20 -20 -20 -20 -20 -20 -20 -20 -20 -20 -20 -20 -20 -20 -20 -20 -20 -20 -20
-20 -20 -20 -20 -20 16 -20 -20 -20 -20 -20 -20 -20 -20 -20 -20 -20 -20 -20 -20 -20 -20 -20 -20 -20 -20 -20 -20 -20 -20 -20 -20 -20 -20 -20 -20 -20 -20 -20 -20 -20 -20 -20
-20 -20 -20 -20 -20 -12 27 13 4 -20 -20 -20 -20 -20 -20 -20 -20 -20 -20 -20 -20 -20 -20 -20 -20 -20 -20 -20 -20 -20 -20 -20 -15 -20 6 -15 12 -20 -10 -20 -20 -20 -20
-20 -20 -20 -20 -20 -20 -20 38 31 18 -13 -20 -20 -20 -20 -20 -20 -20 -20 -20 -20 -20 -20 -20 -20 -20 -20 -20 -20 -0 -4 -20 -20 -20 -20 -20 -19 -12 -7 -5 5 -20 -20
-20 -20 -20 -20 -20 -20 -20 -20 13 13 33 1 -17 -20 -20 -20 -20 -20 -20 -20 -20 -20 -20 -20 -20 -20 -20 -20 -20 1 -15 -20 -20 -7 -7 -20 0 17 -0 -20 9 -20 -20
-20 -20 -20 -20 -20 -20 -20 -20 -20 35 21 3 16 -3 -20 -20 -20 -20 -20 -20 -20 -20 -20 -20 -20 -20 -5 -17 -20 -11 -20 -20 -20 -9 1 8 -16 5 17 4 -5 -3 11
-20 -20 -20 -20 -20 -20 -20 -20 -20 -20 33 30 -14 27 4 -8 -20 -20 -20 -20 -20 -20 -20 -20 -10 -20 -20 -20 -20 -16 9 1 -20 -20 -20 -20 -20 -20 -20 -11 10 -15 -20
-20 -20 -20 -20 -20 -20 -20 -20 -20 -20 -20 2 34 -15 33 6 -15 -2 -20 -20 -20 -20 -20 -20 -20 -20 -20 -20 13 -15 -11 8 -15 -19 -20 -20 -20 -20 -20 -20 -20 -20 -18
-20 -20 -20 -20 -20 -20 -20 -20 -20 -20 -20 -20 -20 36 -15 38 13 -20 -20 -20 -20 -20 -20 -20 -20 -20 -20 11 -19 -20 -20 -1 -13 -20 -20 -20 -20 -20 -20 -20 -20 -20 -20
-20 -20 -20 -20 -20 -20 -20 -20 -20 -20 -20 -20 -20 -20 21 11 35 13 -20 -20 -20 2 -20 -20 -20 -20 -20 -20 -20 -20 -20 -20 -20 -20 -20 -20 -20 -20 -20 -20 -20 -20 -20
-20 -20 -20 -20 -20 -20 -20 -20 -20 -20 -20 -20 -20 -20 -20 13 14 37 8 -20 -20 -20 -20 -20 -20 -20 -20 -20 -20 -20 -20 -20 -20 -20 -20 -20 -20 -20 -20 -20 -20 -20 -20
-20 -20 -20 -20 -20 -20 -20 -20 -20 -20 -20 -20 -20 -20 -20 -20 30 39 32 -20 -20 -20 -20 -20 -20 -20 -20 -20 -20 -20 -20 -20 -20 -20 -20 -18 -9 -20 -20 -20 -20 -20 -20
-20 -20 -20 -20 -20 -20 -20 -20 -20 -20 -20 -20 -20 -20 -20 2 33 35 35 -19 -20 -20 -20 -20 -20 -20 -20 -20 -20 -20 -20 -20 -20 -20 -20 -20 -20 -20 3 -9 27 -11 -17
-20 -20 -20 -20 -20 -20 -20 -20 -20 -20 -16 -20 -20 -20 -20 -20 -20 6 31 -14 -20 -20 -20 -20 -20 -20 -20 -20 -20 -20 -20 -20 -20 -20 -20 -20 -17 1 17 33 10 12 20

GFSSE_prec_radar_144.txt.gz
Reflectivity
-20 -20 -20 -20 -20 -20 -20 -20 -20 -20 -20 -20 -20 -20 -20 -20 -20 -20 -20 -20 -20 -20 -20 -20 -20 -20 -20 -20 -20 -20 -20 -20 -20 -20 -20 -20 -20 -20 -20 -20 -20 -20 -20
-20 -20 -20 -20 -20 -20 -20 -20 -20 -20 -20 -20 -20 -20 -20 -20 -20 -20 -20 -20 -20 -20 -20 -20 -20 -20 -20 -20 -20 -20 -20 -20 -20 -20 -20 -20 -20 18 -20 -20 -20 -20 -20
-20 -20 -20 -20 -20 -20 -20 -20 -20 -20 -20 -20 -20 -20 -20 -20 -20 -20 -20 -20 -20 -20 -20 -20 -20 -20 -20 -20 -20 -20 -20 -20 -20 -20 -20 -20 -20 -20 -20 -20 -20 -20 -20
-20 -20 -20 -20 -20 -20 -20 -20 -20 -20 -20 -20 -20 -20 -20 -20 -20 -20 -20 -20 -20 -20 -20 -20 -20 -20 -20 -20 -20 -20 -20 -20 -20 -20 -20 -20 -20 -20 -20 -20 -20 -20 -20
-20 -20 -20 -20 -20 -20 -20 -20 -20 -20 -20 -20 -20 -20 -20 -20 -20 -20 -20 -20 -20 -20 -20 -20 -20 -20 -20 -20 -20 -20 -20 -20 -20 -20 -20 -20 -20 -20 -20 -20 -20 -20 -20
-20 -20 -20 -20 -20 -20 -20 -20 -20 -20 -20 -20 -20 -20 -20 -20 -20 -20 -20 -20 -20 -20 -20 -20 -20 -20 -20 -20 -20 -20 -20 -20 -20 -20 -20 -20 -20 -20 -20 -20 -20 -20 -20
-20 -20 -20 -20 -20 -20 -20 -20 -20 -20 -20 -20 -20 -20 -20 -20 -20 -20 -20 -20 -20 -20 -20 -20 -20 -20 -20 -20 -20 -20 -20 -20 -20 -20 -20 -20 -20 -20 -20 -20 -20 -20 -20
-20 -20 -20 -20 -20 -20 -20 -20 -20 -20 -20 -20 -20 -20 -20 -20 -20 -20 -20 -20 -20 -20 -20 -20 -20 -20 -20 -20 -20 -20 -20 -20 -20 -20 -20 -20 -20 -20 -20 -20 -20 -20 -20
-20 -20 -20 -20 -20 -20 -20 -20 -20 -20 -20 -20 -20 -20 -20 -20 -20 -20 -20 -20 -20 -20 -20 -20 -20 -20 -20 -20 -20 -20 -20 -20 -20 -20 -20 -20 -20 -20 -20 -20 -20 -20 -20
-20 -20 -20 -20 -20 -20 -20 -20 -20 -20 -20 -20 -20 -20 -20 -20 -20 -20 -20 -20 -20 -20 -20 -20 -20 -20 -20 -20 -20 -20 -20 -20 -20 -20 -20 -20 -20 -20 -20 -20 -20 -20 -20
-20 -20 -20 -20 -20 -20 -20 -20 -20 -20 -20 -20 -20 -20 -20 -20 -20 -20 -20 -20 -20 -20 -20 -20 -20 -20 -20 -20 -20 -20 -20 -20 -20 -20 -20 -20 -20 -20 -20 -20 -20 -20 -20
-20 -20 -20 -20 -20 -20 -20 -18 -20 -20 -20 -20 -20 -20 -20 -20 -20 -20 -20 -20 -20 -20 -20 -20 -20 -20 -20 -20 -20 -20 -20 -20 -20 -20 -20 -20 -20 -20 -20 -20 -20 -20 -20
-20 -20 -20 -20 -20 -20 -20 10 -13 -20 -18 -15 -20 -20 -20 -20 -20 -20 -20 -20 -20 -20 -20 -20 -20 -20 -20 -20 -20 -20 -20 -20 -20 -20 -20 -20 -17 -20 -20 -20 -20 -20 -20
-20 -20 -20 -20 -20 -20 -19 -20 16 -18 -19 -20 -15 -20 -20 -20 -20 -20 -20 -20 -20 -20 -20 -20 -20 -20 -20 -20 -20 -20 -20 -20 -20 -20 -20 -19 -18 -6 -18 -20 -20 -20 -20
-20 -20 -20 -20 -20 -20 -20 -20 13 -12 -20 -13 -14 -15 -20 -20 -20 -20 -20 -20 -20 -20 -20 -20 -20 -20 -20 -20 -20 -20 -20 -20 -20 -20 -20 12 -20 -12 -4 4 -20 -20 -20
-20 -20 -20 -20 -20 -20 -20 -20 -20 10 11 20 -1 -1 8 -19 -20 -20 -20 -20 -20 -20 -20 -20 -20 -20 -20 -20 -20 -20 -20 -20 -20 -20 -20 -11 -4 -20 3 -7 4 18 -20
-20 -20 -20 -20 -20 -20 -20 -20 -20 -20 12 21 25 17 23 -6 -20 -20 -20 -20 -20 -20 -20 -20 -20 -20 -20 -20 -20 -20 -20 -17 -20 -12 -16 -20 11 -20 1 -16 -20 -20 -18
-20 -20 -20 -20 -20 -20 -20 -20 -20 -20 -20 -6 21 -6 -5 20 23 1 -20 -20 -20 -20 -20 -20 -20 -20 -20 -20 -20 -20 -20 -20 -20 -20 -20 -5 5 -20 -9 -20 -20 -20 -16
-20 -20 -20 -20 -20 -20 -20 -20 -20 -20 -20 -20 -8 -7 34 36 18 16 -13 -20 -20 -20 -20 -20 -20 -20 -20 -20 -20 -20 7 -20 -20 -20 -20 -20 -20 -20 -20 -20 -20 -20 -20
-20 -20 -20 -20 -20 -20 -20 -20 -20 -20 -20 -20 -20 -20 -13 -11 23 38 27 -18 -20 -20 -20 -20 -20 -20 -20 -20 -20 -20 -20 -20 12 -20 -20 -20 -20 -20 -20 -20 -20 -20 -20
-20 -20 -20 -20 -20 -20 -20 -20 -20 -20 -20 -20 -20 -20 -20 -20 20 33 36 13 -14 -20 -20 -20 -20 -20 -20 -20 -20 -20 -20 -20 -17 -16 -20 -20 -20 -20 -20 -20 -20 -20 -20
-20 -20 -20 -20 -20 -20 -20 -20 -20 -20 -20 -20 -20 -20 -20 -20 -20 17 29 36 17 7 -1 -20 -20 -20 -20 -20 -20 -20 -20 -20 -20 -20 -20 -20 -20 -20 -20 -20 -20 -20 -20
-20 -20 -20 -20 -20 -20 -20 -20 -20 -20 -20 -20 -20 -20 -20 -20 -20 -20 -14 33 39 16 3 -20 -20 -6 -20 -20 -20 -20 -20 -20 -20 -20 -20 -20 -20 -20 -20 -20 -20 -20 -20
-20 -20 -20 -20 -20 -20 -20 -20 -20 -12 5 -9 -19 -20 -20 -20 -20 -20 19 32 43 32 18 -10 -20 -20 -20 -20 -20 -20 -20 -20 -20 -20 -20 -20 -20 -20 -20 -20 -20 23 -20
-20 -20 -20 -20 -20 -20 -20 -20 -20 -16 7 15 -6 -20 -20 -20 -20 -20 -20 24 30 51 32 21 -19 -20 -20 -20 -20 -20 -20 -20 -20 -20 -20 -20 -20 -20 -20 -20 -20 -20 -4
-20 -20 -20 -20 -20 -20 -20 -20 -20 -8 8 21 11 -12 -20 -20 -20 -20 -20 17 20 33 44 30 17 -13 -20 -20 -20 -20 -20 -20 -20 -20 -20 -20 -20 -20 23 21 -20 -20 -14

GFSSE_prec_radar_147.txt.gz
Reflectivity
-20 -20 -20 -20 -20 -20 -20 -20 -20 -20 -20 -20 -20 -20 -20 -20 -20 -20 -20 -20 -20 -20 -20 -20 -20 -20 -20 -20 -20 -20 -20 -20 -20 -20 -20 -20 -20 -20 -20 -20 -20 -20 -7
-20 -20 -20 -20 -20 -20 -20 -20 -20 -20 -20 -20 -20 -20 -20 -20 -20 -20 -20 -20 -20 -20 -20 -20 -20 -20 -20 -20 -20 -20 -20 -20 -20 -20 -20 32 -20 -20 -20 -20 -20 -20 -20
-20 -20 -20 -20 -20 -20 -20 -20 -20 -20 -20 -20 -20 -20 -20 -20 -20 -20 -20 -20 -20 -20 -20 -20 -20 -20 -20 -20 -20 -20 -20 -20 -20 -20 -20 -20 -20 -7 -20 -20 -20 -20 -6
-20 -20 -20 -20 -20 -20 -20 -20 -20 -20 -20 -20 -20 -20 -20 -20 -20 -20 -20 -20 -20 -20 -20 -20 -20 -20 -20 -20 -20 -20 -20 -20 -20 -20 -20 -20 -20 1 -20 -20 -20 -20 -20
-20 -20 -20 -20 -20 -20 -20 -20 -20 -20 -20 -20 -20 -20 -20 -20 -20 -20 -20 -20 -20 -20 -20 -20 -20 -20 -20 -20 -20 -20 -20 -20 -20 -20 -20 -20 -20 -20 -20 -20 -20 -20 -10
-20 -20 -20 -20 -20 -20 -20 -20 -20 -20 -20 -20 -20 -20 -20 -20 -20 -20 -20 -20 -20 -20 -20 -20 -20 -20 -20 -20 -20 -20 -20 -20 -20 -20 -20 -20 -20 -20 -20 -20 -20 -20 -20
-20 -20 -20 -20 -20 -20 -20 -20 -20 -20 -20 -20 -20 -20 -20 -20 -20 -20 -20 -20 -20 -20 -20 -20 -20 -20 -20 -20 -20 -20 -20 -20 -20 -20 -20 -20 -20 -20 -20 -20 -20 -12 -20
-20 -20 -20 -20 -20 -20 -20 -20 -20 -20 -20 -20 -20 -20 -20 -20 -20 -20 -20 -20 -20 -20 -20 -20 -20 -20 -20 -20 -20 -20 -20 -20 -20 -20 -20 -20 -20 -20 -20 -20 -20 -20 -20
-20 -20 -20 -20 -20 -20 -20 -20 -20 -20 -20 -20 -20 -20 -20 -20 -20 -20 -20 -20 -20 -20 -20 -20 -20 -20 -20 -20 -20 -20 -20 -20 -20 -20 -20 -20 -20 -3 -20 -20 -20 -20 -20
-20 -20 -20 -20 -20 -20 -18 -12 -20 -20 -20 -20 -20 -20 -20 -20 -20 -20 -20 -20 -20 -20 -20 -20 -20 -20 -20 -20 -20 -20 -20 -20 -20 -20 -20 -20 -20 -20 -20 -20 -20 -20 -20
-20 -20 -20 -10 -12 -12 -20 -6 -19 17 -20 -20 -20 -20 -18 -20 -20 -20 -20 -20 -20 -20 -20 -20 -20 -20 -20 -20 -20 -20 -20 -20 -20 -20 -20 -20 -20 -15 14 -20 -20 -20 -20
-20 -20 -20 -20 -20 -20 -16 13 -0 12 -10 -13 -20 -20 -20 -20 -20 -20 -20 -20 -20 -20 -20 -20 -20 -20 -20 -20 -20 -20 -20 -20 -20 -20 -20 -20 -1 -20 10 -2 -20 -20 -20
-20 -20 -20 -20 -20 -20 -20 -20 8 12 14 -20 12 -14 -20 -20 -20 -20 -20 -20 -20 -20 -20 -20 -20 -20 -20 -20 -20 -20 -20 -20 -20 -20 -20 -20 -20 -20 6 -20 -20 -20 -20
-20 -20 -20 -20 -20 -20 -20 -20 -20 -10 -11 18 -3 5 5 9 -20 -20 -20 -20 -16 -20 -20 -20 -20 -20 -20 -20 -20 -20 -20 -20 -20 -20 -20 -20 -20 -20 -20 -14 -20 -20 -20
-20 -20 -20 -20 -20 -20 -20 -20 -20 -20 -20 -17 6 -1 -0 -2 29 -20 -15 -20 -20 -4 -20 -20 -20 -20 -20 -20 -20 -20 -20 -20 -20 -20 -20 -20 -20 -20 -20 -20 -20 -20 -20
-20 -20 -20 -20 -20 -20 -20 -20 -20 -20 -20 -20 8 6 14 24 1 30 13 -20 -20 -16 -20 -20 -20 -20 -20 -20 -20 -20 -20 -20 -20 -20 -20 -14 -8 -20 -20 -20 11 -20 -20
-20 -20 -20 -20 -20 -20 -20 -20 -20 -20 -20 -20 -20 -20 9 19 5 28 32 -8 -20 -20 -20 -20 -20 -20 -20 -20 -20 -20 -20 -20 -20 -14 -20 -20 3 1 -20 -20 -20 -20 -20
-20 -20 -20 -20 -20 -20 -20 -20 -20 -20 -20 -20 -20 -20 -12 28 19 15 24 27 5 -2 -14 -20 -20 -20 -20 -20 -20 -20 -20 -20 -20 -20 -20 -20 -20 -20 -20 5 -20 -20 -20
-20 -20 -20 -20 -20 -20 -20 -20 -20 -20 -20 -20 -20 -20 -20 -5 6 8 34 27 27 14 -3 -20 -20 -20 -20 -20 -20 -20 -20 -20 -20 -20 -20 -20 -20 -20 -20 -20 -10 -15 -20
-20 -20 -20 -20 -20 -20 -20 -20 -20 -20 -20 -20 -20 -20 -20 -20 -20 9 26 35 32 23 -3 -19 5 -20 -20 -20 -20 -20 -20 -20 1 -20 -20 -20 -20 -20 -20 -20 -19 -20 -20
-20 -20 -20 -20 -20 -20 -20 -20 -20 -20 -20 -20 -20 -20 -20 -20 -20 3 28 5 32 7 31 14 29 22 -19 -20 -20 -20 -20 -18 8 -20 -20 -20 -20 -20 -20 -20 -20 -20 -20
-20 -20 -20 -20 -20 -20 -20 -20 -20 -20 -20 -20 -20 -20 -20 -20 -20 -20 14 26 31 14 31 31 23 31 7 29 -20 -20 9 -18 10 9 4 -20 -20 -20 -20 -20 -20 -20 -20
-20 -20 -20 -20 -20 -20 -20 -20 -20 -20 -13 -20 -20 -20 -20 -20 -20 -20 -20 5 28 30 42 41 33 22 31 31 -18 -20 -20 -16 -20 -20 -20 -20 -20 -20 -20 -20 -20 -20 -20
-20 -20 -20 -20 -20 -20 -20 -20 -15 -20 -20 -12 -20 -20 -20 -20 -20 -20 -20 -20 6 10 27 28 39 32 33 23 30 -20 -20 -20 -20 -20 -20 -20 -20 -20 -20 -20 -20 -20 -20
-20 -20 -20 -20 -20 -20 -20 -20 -20 -20 -20 -18 -19 1 -20 -20 -20 -8 -20 -14 10 -20 11 34 36 42 27 36 29 -2 6 -20 -20 -20 -20 -20 -20 -20 -20 -20 -20 -20 -20
-20 -20 -20 -20 -20 -20 -20 -20 -16 -8 -20 -20 -9 -20 1 -19 -19 -20 -17 -20 -4 -11 -20 2 21 47 43 33 29 33 -15 -20 -20 -20 -20 -20 -20 -20 -20 -20 -20 -20 -20

GFSSE_prec_radar_153.txt.gz
Reflectivity
-20 -20 -20 -20 -20 -20 -20 -20 -20 -20 -20 -20 -20 -20 -20 -20 -20 -20 -20 -20 -20 -20 -20 -20 -20 -20 -20 -20 -20 -20 -20 -20 -20 -20 -20 -20 -20 -20 -20 -20 -20 -20 -20
-20 -20 -20 -20 -20 -20 -20 -20 -20 -20 -20 -20 -20 -20 -20 -20 -20 -20 -20 -20 -20 -20 -20 -20 -20 -20 -20 -20 -20 -20 -20 -20 -20 -20 -20 -20 -20 -20 -20 -20 -20 -20 -20
3 -20 -20 -20 -20 -20 -20 -20 -20 -20 -20 -20 -20 -20 -20 -20 -20 -20 -20 -20 -20 -20 -20 -20 -20 -20 -20 -20 -20 -20 -20 -20 -20 -20 -20 -20 -20 -20 -20 -20 -20 -20 -14
-20 -20 -20 -20 -20 -20 -20 -20 -20 -20 -20 -20 -20 -20 -20 -20 -20 -20 -20 -20 -20 -20 -20 -20 -20 -20 -20 -20 -20 -20 -20 -20 -20 -20 -20 -20 -20 -20 -20 -20 -20 -11 -20
-1 -2 9 -6 -20 -20 -20 -20 -20 -20 -20 -20 -20 -20 -20 -20 -20 -20 -20 -20 -20 -20 -20 -20 -20 -20 -20 -20 -20 -20 -20 -20 -20 -20 -20 -20 -20 -20 -20 -20 -18 -14 -20
-20 -20 -14 11 11 13 3 -20 -20 -20 -20 -20 -20 -20 -20 -20 -20 -20 -20 -20 -20 -20 -20 -20 -20 -20 -20 -20 -20 -20 -20 -20 -20 -20 -20 -20 -20 -20 -20 -20 -20 -20 13
-20 -20 -20 22 -0 6 -2 14 2 6 -20 -20 -20 -20 -20 -20 -20 -20 -20 -20 -20 -20 -20 -20 -20 -20 -20 -20 -20 -20 -20 -20 -20 -20 -20 -20 -20 21 -20 -20 -20 -20 -20
-20 -20 -20 -20 -20 -14 -18 -15 -12 8 -6 -20 -20 -20 5 -20 -20 -20 -20 -20 -20 -20 -20 -20 -20 -20 -20 -20 -20 -20 -20 -20 -20 -20 -20 -20 -20 -20 -20 -20 -20 -20 -20
-20 -20 -20 -20 -20 -1 -2 11 -13 -20 -7 -20 3 -20 -20 -20 -20 -20 -20 -20 -20 -20 -20 -20 -20 -20 -20 -20 -20 -20 -20 -20 -20 -20 -20 -20 -20 -20 -20 -20 -20 -20 -20
-20 -20 -20 -20 -20 -20 -20 -12 18 -10 15 8 -20 -12 28 -20 -20 -20 -20 -20 -20 -20 -20 -20 -20 -20 -20 -20 -20 -20 -20 -20 -20 -20 -20 -20 -20 -20 -7 24 -20 -20 -19
-20 -20 -20 -20 -20 -20 -20 -20 -20 -20 -20 5 -2 -20 -20 5 -14 -20 -20 -20 -20 -2 -20 -20 -20 -20 -20 -20 -20 -20 -20 -20 -20 -20 -20 -20 -20 -20 -15 -6 -20 -20 -20
-20 -20 -20 -20 -20 -20 -20 -20 -20 -20 -20 -20 -20 -20 8 -13 -12 10 22 24 -20 -20 -20 -20 -20 -20 -20 -20 -20 -20 -20 -20 -20 -20 -20 -20 -20 -20 -19 27 -20 -11 -13
-20 -20 -20 -20 -20 -20 -20 -20 -20 -20 -20 -20 -20 -20 -20 11 12 -14 1 -19 -2 -5 10 3 -20 -20 -20 -20 -20 -20 -20 -20 -20 -20 -20 -20 -20 -20 -20 -13 -20 -20 -20
-20 -20 -20 -20 -20 -20 -20 -20 -20 -20 -20 -20 -20 -20 -20 -20 -20 12 10 2 10 -20 -8 -19 4 -20 -20 -20 -20 -20 -20 -20 -20 -20 -20 -20 -20 -20 -20 -20 -20 -20 9
-20 -20 -20 -20 -20 -20 -20 -20 -20 -20 -20 -20 -20 -20 -20 -20 -20 -20 -0 15 -20 6 4 -17 -13 -14 -20 -20 -20 -20 -20 -20 -20 -20 -20 -20 -20 -20 -20 2 -20 -20 -20
-20 -20 -20 -20 -20 -20 -20 -20 -20 -20 -20 -20 -20 -20 -20 -20 -20 -20 -20 -11 18 16 29 1 27 13 -20 -20 -7 -20 -20 -20 -20 -20 -20 -20 -20 -20 -20 -20 -20 -20 -20
-20 -20 -20 -20 -20 -20 -20 -20 -20 -20 -20 -20 -20 -20 -20 -20 -20 -20 -20 -20 -20 10 26 30 7 -14 -13 -20 -19 8 -20 -20 -20 -20 -20 -20 -20 -20 -20 -20 -20 -20 -20
-20 -20 -20 -20 -20 -20 -20 -20 -20 -20 -20 -20 -20 -20 -20 -20 -20 -20 -6 -9 -20 -20 7 9 24 33 27 5 -9 8 9 -20 -20 -20 -20 -20 -20 -20 -20 -20 -20 -20 -20
-20 -20 -20 -20 -20 -20 -20 -20 -20 -20 -20 -20 -20 -20 -20 -20 -20 -20 -20 -17 -2 -10 -19 24 23 21 30 35 16 -16 13 -5 -20 -20 -20 -20 -20 -20 -20 -20 -12 -20 -20
-20 -20 -20 -20 -20 -20 -20 -20 -20 -20 -20 -20 -20 -20 -20 -20 -20 -20 -7 -2 2 -4 -20 -17 25 -17 4 10 27 25 -20 -20 -20 -20 -20 -20 -20 -20 -20 -20 -20 -20 -20
-20 -20 -20 -20 -20 -20 -20 -20 -20 -20 -20 -20 -20 -20 -20 -20 -20 -4 -20 -20 -20 7 2 -20 -16 31 15 -3 15 20 -7 -10 -20 -19 -15 -20 -20 -20 -20 -20 -20 -20 -20
-20 -20 -20 -20 -20 -20 -20 -20 -20 -20 -20 -20 -20 -20 -20 -20 -11 2 9 -1 -19 4 -13 3 -20 -6 18 22 24 37 37 18 5 -20 2 -16 -20 -20 -20 -20 -20 -20 -20
-20 -20 -20 -20 -20 -20 -20 -20 -20 -20 -20 -20 -20 -20 -20 -20 -20 1 -9 -1 6 13 14 1 6 1 12 5 32 13 1 25 20 -5 4 5 -15 -20 -20 -20 -20 -20 -20
-20 -20 -20 -20 -20 -20 -20 -20 -20 -17 -20 -20 -20 -7 -20 -20 -20 -20 1 -3 1 3 9 13 10 16 15 2 15 4 0 24 34 5 2 2 8 -20 -20 -20 -20 -20 -20
-20 -20 -20 -20 -20 -20 -20 -20 -4 -7 -7 -20 -4 -19 -20 -5 -20 -20 3 4 3 9 5 8 7 11 7 19 15 26 14 8 26 14 16 -14 -3 -20 -20 -20 -20 -20 -20
-20 -20 -20 -20 -20 -20 -20 -20 -20 -9 -20 -3 -20 -20 -20 -16 -17 -16 2 2 -16 5 -1 -3 -3 2 0 10 20 19 40 35 28 43 35 28 23 1 -20 -20 -20 -20 -20

GFSSE_prec_radar_156.txt.gz
Reflectivity
-20 -20 -20 -20 -20 -20 -20 -20 -20 -20 -20 -20 -20 -20 -20 -20 -20 -20 -20 -20 -20 -20 -20 -20 -20 -20 -20 -20 -20 -20 -20 -20 -20 -20 -20 -20 -20 -20 -20 -20 -20 -20 -20
2 7 -20 -20 -20 -20 -20 -20 -20 -20 -20 -20 -20 -20 -20 -20 -20 -20 -20 -20 -20 -20 -20 -20 -20 -20 -20 -20 -20 -20 -20 -20 -20 -20 -20 -20 -20 -20 -20 -20 -20 -20 -20
6 14 -20 -20 -20 -20 -20 -20 -20 -20 -20 -20 -20 -20 -20 -20 -20 -20 -20 -20 -20 -20 -20 -20 -20 -20 -20 -20 -20 -20 -20 -20 -20 -20 -20 -20 -20 -20 -20 -20 -20 -20 -20
3 -9 -6 11 7 -20 -20 -20 -20 -20 -20 -20 -20 -20 -20 -20 -20 -20 -20 -20 -20 -20 -20 -20 -20 -20 -20 -20 -20 -20 -20 -20 -20 -20 -20 -20 -20 -20 -20 -20 -20 -20 -20
-20 -20 -10 9 10 10 -20 -20 -20 -20 -20 -20 -20 -20 -20 -20 -20 -20 -20 -20 -20 -20 -20 -20 -20 -20 -20 -20 -20 -20 -20 -20 -20 -20 -20 -20 -20 -20 -20 -20 -20 -20 1
-20 -20 5 11 10 6 9 12 -20 -20 -20 -20 -20 -20 -20 -20 -20 -20 -20 -20 -20 -20 -20 -20 -20 -20 -20 -20 -20 -20 -20 -20 -20 -20 -20 -20 -20 -20 -20 -20 -20 -20 -20
-20 -20 -20 -20 -18 -0 -1 7 6 -9 -20 -20 -20 -20 -20 -20 -20 -20 -20 -20 -20 -20 -20 -20 -20 -20 -20 -20 -20 -20 -20 -20 -20 -20 -20 -20 -20 -11 -20 -20 -20 -20 -20
-20 -20 -20 -20 -20 -12 -11 -17 -10 0 -12 -20 -20 -20 -20 -20 -20 -20 -20 -20 -20 -20 -20 -20 -20 -20 -20 -20 -20 -20 -20 -20 -20 -20 -20 -20 -20 -20 -20 -20 -20 -20 -20
-20 -20 -20 -20 -20 -20 -18 3 1 -11 -0 -4 -8 -20 -20 -20 -4 -20 -20 -20 -20 -20 -20 -20 -20 -20 -20 -20 -20 -20 -20 -20 -20 -20 -20 -20 -20 -20 -20 -20 -20 -20 -20
-20 -20 -20 -20 -20 -20 -20 -20 -20 -20 3 3 -18 -15 -20 -20 -20 -20 35 -20 -20 -20 -20 -20 -20 -20 -20 -20 -20 -20 -20 -20 -20 -20 -20 -20 -20 15 -20 -20 -20 -20 -20
-20 -20 -20 -20 -20 -20 -20 -20 -20 -20 -20 -20 -20 -20 -9 5 12 24 23 -11 -9 -2 -20 -20 -20 -20 -20 -20 -20 -20 -17 -20 -20 -20 -20 -20 -20 -20 -20 -20 -20 -20 -20
-20 -20 -20 -20 -20 -20 -20 -20 -20 -20 -20 -20 -20 -20 -20 -20 -20 10 -10 -20 -13 -20 -16 3 -20 -20 -12 -20 -20 -20 -20 -20 -20 -20 -20 -20 -20 -20 -20 -20 -20 -20 -20
-20 -20 -20 -20 -20 -20 -20 -20 -20 -20 -20 -20 -20 -20 -20 -20 -20 -20 -5 20 0 -20 12 -11 -13 -13 -20 -20 -20 -20 -20 -20 -20 -20 -20 -20 -20 -20 30 -20 -20 -20 -20
-20 -20 -20 -20 -20 -20 -20 -20 -20 -20 -20 -20 -20 -20 -20 -20 -20 -20 -20 -20 -20 33 20 8 27 21 -20 -20 -20 -20 -20 -20 -20 -20 -20 -20 -20 -20 -20 -20 -20 -20 -20
-20 -20 -20 -20 -20 -20 -20 -20 -20 -20 -20 -20 -20 -20 -20 -20 -20 -20 -20 -20 -20 -17 5 14 0 29 -14 -20 -20 -20 -20 -20 -20 -20 -20 -20 -20 -20 -20 -20 -20 -20 -20
-20 -20 -20 -20 -20 -20 -20 -20 -20 -20 -20 -20 -20 -20 -20 -20 -20 -20 -20 -20 -20 -20 -20 -3 18 13 26 28 12 -20 -14 -8 -1 -18 -20 -20 -20 -20 -20 -20 14 -9 -20
-20 -20 -20 -20 -20 -20 -20 -20 -20 -20 -20 -20 -20 -20 -20 -20 -20 -20 -20 -20 -20 -20 -20 -20 -20 17 27 19 27 14 -20 -20 -16 -2 -20 -20 -20 -20 -20 -20 -20 -20 -4
-20 -20 -20 -20 -20 -20 -20 -20 -20 -20 -20 -20 -20 -20 -20 -20 -20 -20 -20 -20 -20 -20 -20 -20 -20 -15 9 14 -14 33 13 3 -17 -19 -6 -12 -20 -20 -20 -20 -20 -20 -20
-20 -20 -20 -20 -20 -20 -20 -20 -20 -20 -20 -20 -20 -20 -20 -20 -20 -20 -20 -20 -20 -20 -20 -20 -20 5 16 16 14 -6 -8 -8 3 11 -9 -12 -20 -20 -20 -20 -20 -20 -20
-20 -20 -20 -20 -20 -20 -20 -20 -20 -20 -20 -20 -20 -20 -20 -20 -20 -20 -20 -20 -20 -20 -13 -5 -15 3 -7 13 22 13 13 1 -20 9 5 -20 -20 -20 -20 -20 -20 -20 -20
-20 -20 -20 -20 -20 -20 -20 -20 -20 -20 -20 -20 -20 -20 -20 -20 -20 -2 -2 -20 -20 -20 2 -0 -6 2 7 -12 20 7 11 -20 -13 9 -20 -20 -20 -20 -20 -20 -20 -20 -20
-20 -20 -20 -20 -20 -20 -20 -20 -20 -20 -20 -20 -20 -20 -20 -20 -20 -13 -0 5 5 7 2 0 -4 10 1 8 12 19 20 11 19 17 -11 -20 -15 -20 -20 -20 -20 -20 -20
-20 -20 -20 -20 -20 -20 -20 -20 -20 -20 -20 -20 -20 -20 -20 -20 -20 -20 -3 2 1 5 6 7 6 3 10 -11 13 19 21 3 -2 16 17 -13 12 9 -20 -20 -20 -20 -20
-20 -20 -20 -20 -20 -20 -20 -20 -20 -20 -20 -20 -20 -20 -20 -20 -20 -20 -20 -7 -18 6 -0 -0 3 12 12 -4 -5 18 21 8 20 21 4 -3 8 13 -4 -18 -20 -20 -20
-20 -20 -20 -20 -20 -20 -20 -19 -7 -3 -20 -0 -13 -20 -19 -19 -20 -20 -20 -20 -11 -1 1 3 0 1 -17 0 -4 7 16 19 20 25 17 -5 -16 5 1 23 -20 17 -20
-20 -20 -20 -20 -20 -20 -0 -0 -20 -20 -20 -20 -20 -20 -20 -20 -20 -20 -20 -20 -20 -15 -0 -5 -12 1 5 -8 -16 -7 7 22 29 -7 28 26 27 34 26 23 -1 12 16

GFSSE_prec_radar_159.txt.gz
Reflectivity
-14 -20 -20 -20 -20 -20 -20 -20 -20 -20 -20 -20 -20 -20 -20 -20 -20 -20 -20 -20 -20 -20 -20 -20 -20 -20 -20 -20 -20 -20 -20 -20 -20 -20 -20 -20 -20 -20 -20 -20 -18 14 -20
-3 -19 -20 1 -20 -20 -20 -20 -20 -20 -20 -20 -20 -20 -20 -20 -20 -20 -20 -20 -20 -20 -20 -20 -20 -20 -20 -20 -20 -20 -20 -20 -20 -20 -20 -20 -20 -20 -20 -20 -20 -20 -20
14 -8 -20 -12 2 -20 -20 -20 -20 -20 -20 -20 -20 -20 -20 -20 -20 -20 -20 -20 -20 -20 -20 -20 -20 -20 -20 -20 -20 -20 -20 -20 -20 -20 -20 -20 -10 -20 -20 -20 -20 -20 -20
23 -18 -20 7 -18 6 -9 -20 -20 -20 -20 -20 -20 -20 -20 -20 -20 -20 -20 -20 -20 -20 -20 -20 -20 -20 -20 -20 -20 -20 -20 -20 -20 -20 -20 16 8 -20 -20 -20 -20 -20 -20
-11 7 -9 8 -3 -20 -20 -5 -12 -20 -20 -20 -20 -20 -20 -20 -9 -20 -20 -20 -20 -20 -20 -20 -20 -20 -20 -20 -20 -20 -20 -20 -20 -20 -20 -7 23 -20 -20 -20 -20 -20 -11
-20 -20 3 -6 2 -7 -20 -4 -20 -8 -20 -20 -20 -20 -20 -20 -20 -20 -20 -20 -20 -20 -20 -20 -20 -20 -20 -20 -20 -20 -20 -20 -20 -20 29 -2 -20 25 -20 -20 -4 -20 -20
-20 -20 -20 -17 -20 -20 -20 -13 -14 -20 -14 -9 -20 -20 -20 -20 -20 -20 -20 -20 -20 -20 -20 -20 -19 -20 -20 -20 -20 -20 -20 -20 -20 -20 -20 -20 -18 -20 -20 -20 -20 -20 -20
-20 -20 -20 -20 -16 -20 -7 -18 -20 -20 -20 -20 -19 6 -20 -20 -20 -20 -20 -20 -20 -20 -20 -15 -9 -20 -20 -20 -20 -20 -20 -20 -20 -20 -20 4 -20 -20 -20 -20 -20 -20 -20
-20 -20 -20 -20 -20 -20 -20 -20 1 3 3 3 -13 -7 24 -20 -20 -20 -20 -20 -20 -20 -20 -20 -20 -20 -20 -20 -20 -20 -20 -20 -20 -20 -20 -20 -20 -20 -20 -20 -20 -20 -20
-20 -20 -20 -20 -20 -20 -20 -20 -20 -20 -20 -20 -20 -20 -20 33 -6 -17 -20 -20 -20 -20 -20 -20 -20 -20 -20 -20 -20 -20 -20 -20 -20 -20 -20 -20 -20 -20 -20 -20 -20 -20 -20
-20 -20 -20 -20 -20 -20 -20 -20 -20 -20 -20 -20 -20 -20 -20 -20 -20 -14 2 13 -1 -20 8 -16 -20 -20 -12 -20 -20 -20 -20 -20 -20 -20 -20 -20 -20 -20 -20 -20 -20 -20 -20
-20 -20 -20 -20 -20 -20 -20 -20 -20 -20 -20 -20 -20 -20 -20 -20 -20 -20 -20 7 8 -9 -18 -20 -20 -20 -20 -20 -20 -20 -20 -20 -20 -20 -20 -20 -20 -20 -20 -20 -20 -20 -20
-20 -20 -20 -20 -20 -20 -20 -20 -20 -20 -20 -20 -20 -20 -20 -20 -20 -20 -20 -20 -20 25 20 30 23 18 -20 -20 -20 -20 -20 -20 -20 -20 -20 -20 -20 -20 -20 -20 -20 -20 -20
-20 -20 -20 -20 -20 -20 -20 -20 -20 -20 -20 -20 -20 -20 -20 -20 -20 -20 -20 -20 -20 -20 -20 -9 -12 26 32 34 2 -20 -20 -20 -20 -20 -20 -20 -20 -20 -20 -20 -20 -20 -20
-20 -20 -20 -20 -20 -20 -20 -20 -20 -20 -20 -20 -20 -20 -20 -20 -20 -20 -20 -20 -20 -20 -20 -20 -20 -16 -4 33 14 11 -12 -20 -20 -20 -20 -20 -20 -20 -20 -20 -20 -20 -20
-20 -20 -20 -20 -20 -20 -20 -20 -20 -20 -20 -20 -20 -20 -20 -20 -20 -20 -20 -20 -20 -20 -20 -20 -20 -20 -20 17 2 -4 16 8 3 -20 -20 -20 12 -4 -20 -20 -20 -20 -20
-20 -20 -20 -20 -20 -20 -20 -20 -20 -20 -20 -20 -20 -20 -20 -20 -20 -20 -20 -20 -20 -20 -20 -20 -20 -20 -11 -1 11 -14 31 -1 -1 -20 -20 -20 -20 3 -16 -20 -20 -20 -5
-20 -20 -20 -20 -20 -20 -20 -20 -20 -20 -20 -20 -20 -20 -20 -20 -20 -20 -20 -20 -20 -20 -20 -20 -20 -20 -20 5 6 12 -3 24 32 21 9 5 -20 -20 9 5 -20 -20 7
-20 -20 -20 -20 -20 -20 -20 -20 -20 -20 -20 -20 -20 -20 -20 -20 -20 -20 -20 -20 -20 -20 -20 -20 -20 -20 -20 -17 8 2 22 -20 -16 9 -7 5 -20 -20 -20 13 -9 -20 -20
-20 -20 -20 -20 -20 -20 -20 -20 -20 -20 -20 -20 -20 -20 -20 -20 -20 -20 -20 -20 -20 -20 -20 -4 -20 -20 -20 -20 -12 -1 12 18 10 18 12 -15 -20 -20 -20 -7 -2 -20 -20
-20 -20 -20 -20 -20 -20 -20 -20 -20 -20 -20 -20 -20 -20 -20 -20 -20 -20 -20 -20 -20 -12 -7 -9 2 5 0 -16 9 -6 9 7 14 5 21 21 -19 -20 -20 -20 -20 -20 -20
-20 -20 -20 -20 -20 -20 -20 -20 -20 -20 -20 -20 -20 -20 -20 -20 -20 -20 -20 -20 -20 -4 -7 -6 -3 3 4 2 13 -10 10 -6 14 -12 20 21 -19 -20 -20 -20 -20 -20 -20
-20 -20 -20 -20 -20 -20 -20 -20 -20 -20 -20 -20 -20 -20 -20 -20 -20 -20 -20 -20 -20 -15 -10 -20 -20 -1 -12 -20 -10 19 15 9 -20 -8 -20 -16 -18 -6 -20 -20 -20 -20 -20
-20 -20 -20 -20 -20 -20 -20 -20 -20 -20 -20 -20 -20 -20 -20 -20 -20 -20 -20 -20 -18 -20 -20 -2 -20 -2 5 -12 1 -20 3 16 17 20 -15 11 -20 22 21 -20 -20 -20 -20
-20 -20 -20 -20 -20 -20 -20 -20 -20 -20 -20 -20 -20 -20 -20 -20 -20 -20 -20 -20 -20 -20 -19 2 -1 -4 0 9 10 4 -20 -7 6 13 6 7 24 21 22 24 -20 -20 8
-20 -20 -20 -20 -20 -20 -20 -20 -20 -20 -20 -20 -20 -20 -20 -20 -20 -20 -20 -20 -20 -8 -20 -20 -15 -1 -17 8 7 10 12 -4 -19 20 -12 -3 -19 34 26 26 20 -11 -20

GFSSE_prec_radar_165.txt.gz
Reflectivity
-14 -19 8 5 -20 -20 -20 -20 -20 -20 -20 -20 -20 -20 -20 -20 -20 -20 -20 -20 -20 -20 -20 -20 -20 -20 -20 -20 -20 -20 -20 -20 -20 -20 -20 -20 -20 -20 -20 -20 -20 -20 -20
9 -8 10 1 -19 -4 -20 -20 -20 -20 -20 -20 -20 -20 -20 -20 -20 -20 -20 -20 -20 -20 -20 -20 -20 -20 -20 -20 -20 -20 -20 -20 -20 -20 -20 -20 -20 -20 -20 -20 -16 -20 -20
-1 16 -20 12 6 16 6 -18 -20 -20 -20 -20 -20 -20 -20 -20 -20 -20 -20 -20 -20 -20 -20 -20 -20 -20 -20 -20 -20 -20 -20 -20 -20 -20 27 -20 -20 -6 -20 -20 -20 -20 -20
5 -17 -6 -14 -20 12 12 14 6 -10 -20 -20 -20 -20 -20 -20 -20 -20 -20 -20 -20 -20 -20 -20 -20 -20 -20 -20 -20 -20 -20 -20 -20 -20 -20 -20 -9 5 -19 -20 -20 -20 -20
0 1 4 8 -20 -20 -20 -11 9 10 9 -19 -20 -20 -19 -14 -4 -6 -20 -20 -20 -20 -20 -20 -20 -20 -20 -20 -20 -20 -20 -20 -20 -20 -20 -20 -20 -20 -20 -20 -20 -20 -20
-17 -20 7 12 10 -18 -20 -20 -20 -20 -20 -20 -20 -20 -20 -20 -20 -20 -20 -20 -20 -20 -20 -20 0 -3 -20 -20 -20 -20 -20 -20 -20 -20 -20 -20 -16 -13 -20 -20 -20 -20 -20
-20 -20 -20 -20 -20 -20 -20 -1 1 -11 -4 -20 -20 -20 -20 -20 -20 -20 -20 -20 -20 -20 -20 -20 -20 -20 -20 -20 -20 -20 -20 -20 -20 -20 -20 -12 -20 -20 -20 -20 -20 -20 -20
-20 -20 -20 -20 -20 -20 -20 -20 -20 -20 -20 -20 -20 -20 -20 -20 -20 -20 -20 -20 -20 -20 -20 -20 -20 -20 -20 -20 -20 -20 -20 -20 -20 -20 -20 -20 -19 8 2 -20 -20 -20 -20
-20 -20 -20 -20 -20 -20 -20 -20 -20 -20 -20 -20 -20 -20 -20 -20 -20 -20 -20 -20 -20 -20 -20 -20 -20 -20 -20 -20 -20 -20 -20 -20 -20 -20 -20 -20 -6 -17 13 -20 -20 -20 -20
-20 -20 -20 -20 -20 -20 -20 -20 -20 -20 -20 -20 -20 -20 -20 -20 -20 -20 -20 -20 -20 -20 -20 -10 -20 -20 -20 -20 -20 -20 -20 -20 -20 -20 -20 -20 -20 -20 -20 -20 -20 -20 -20
-20 -20 -20 -20 -20 -20 -20 -20 -20 -20 -20 -20 -20 -20 -20 -20 -20 -20 -20 -20 -20 -20 -20 -20 -11 -5 -16 -20 -20 -20 -20 -20 -20 -20 -20 -20 -20 -20 -5 -2 -20 -20 -20
-20 -20 -20 -20 -20 -20 -20 -20 -20 -20 -20 -20 -20 -20 -20 -20 -20 -20 -20 -20 -20 -20 -20 -20 -20 -20 -20 -20 -20 -20 -20 -20 -20 -20 -20 -20 -20 -20 -20 -16 -20 -20 -20
-20 -20 -20 -20 -20 -20 -20 -20 -20 -20 -20 -20 -20 -20 -20 -20 -20 -20 -20 -20 -20 -20 -20 -20 -20 -20 -20 -20 -20 7 -20 26 27 -20 -20 -20 -20 -20 -16 -2 -18 -20 -20
-20 -20 -20 -20 -20 -20 -20 -20 -20 -20 -20 -20 -20 -20 -20 -20 -20 -20 -20 -20 -20 -20 -20 -20 -20 -20 -20 -20 -20 -20 -20 -17 -19 -14 -17 14 11 -19 8 -13 -0 -20 -20
-20 -20 -20 -20 -20 -20 -20 -20 -20 -20 -20 -20 -20 -20 -20 -20 -20 -20 -20 -20 -20 -20 -20 -20 -20 -20 -20 -20 -20 -20 -15 -20 -20 -20 -14 11 17 12 -5 -15 -16 -20 -20
-20 -20 -20 -20 -20 -20 -20 -20 -20 -20 -20 -20 -20 -20 -20 -20 -20 -20 -20 -20 -20 -20 -20 -20 -20 -20 -20 -20 -20 -20 -20 -20 -17 -1 -20 1 7 18 34 4 29 -12 -14
-20 -20 -20 -20 -20 -20 -20 -20 -20 -20 -20 -20 -20 -20 -20 -20 -20 -20 -20 -20 -20 -20 -20 -20 -20 -20 -20 -20 -20 -20 -20 -20 -20 -20 0 3 -16 15 35 3 -17 6 -19
-20 -20 -20 -20 -20 -20 -20 -20 -20 -20 -20 -20 -20 -20 -20 -20 -20 -20 -20 -20 -20 -20 -20 -20 -20 -20 -20 -20 -20 -20 -20 -20 -20 -20 -20 -20 -1 -15 12 25 -4 -20 -6
-20 -20 -20 -20 -20 -20 -20 -20 -20 -20 -20 -20 -20 -20 -20 -20 -20 -20 -20 -20 -20 -20 -20 -20 -20 -20 -20 -20 -20 -20 -20 -20 -20 -20 -20 -20 -20 14 -4 24 9 8 -20
-20 -20 -20 -20 -20 -20 -20 -20 -20 -20 -20 -20 -20 -20 -20 -20 -20 -20 -20 -20 -20 -20 -20 -20 -20 -20 -20 -20 -20 -20 -20 -20 -20 -20 -20 -20 -20 -20 4 4 -20 27 27
-20 -20 -20 -20 -20 -20 -20 -20 -20 -20 -20 -20 -20 -20 -20 -20 -20 -20 -20 -20 -20 -20 -20 -20 -20 -20 -20 -20 -20 -20 -20 -20 -20 -20 -20 -20 -20 -17 -20 -20 -6 10 24
-20 -20 -20 -20 -20 -20 -20 -20 -20 -20 -20 -20 -20 -20 -20 -20 -20 -20 -20 -20 -20 -20 -20 -20 -20 -20 -20 -20 -3 -20 -20 -20 -20 -20 -20 -20 -20 -20 -20 -2 -8 6 22
-20 -20 -20 -20 -20 -20 -20 -20 -20 -20 -20 -20 -20 -20 -20 -20 -20 -20 -20 -20 -20 -20 -20 -20 -20 -20 -20 -20 -20 -6 2 -9 -20 -20 -20 -20 -20 -20 -20 -20 -19 9 12
-20 -20 -20 -20 -20 -20 -20 -20 -20 -20 -20 -20 -20 -20 -20 -20 -20 -20 -20 -20 -20 -20 -20 -20 -20 -20 -20 -2 -20 -18 -3 7 9 -7 -20 -20 -20 -20 -20 -20 -20 -20 -12
-20 -20 -13 -20 -20 -20 -20 -20 -20 -20 -20 -20 -20 -20 -20 -20 -20 -20 -20 -20 -20 -20 -20 -20 -20 -20 -20 -1 7 -4 -20 -5 -13 11 -5 -19 -20 -20 -20 -20 -20 -20 -20
-20 -20 -20 -20 -20 -20 -20 -20 -20 -20 -20 -20 -20 -20 -20 -20 -20 -20 -20 -20 -20 -20 -20 -20 -20 -20 -19 -17 -13 -2 -8 5 -19 -5 3 -0 -15 -20 -20 -20 -20 -20 -20

GFSSE_prec_radar_168.txt.gz
Reflectivity
-20 15 11 9 1 -20 -20 -20 -20 -20 -20 -20 -20 -20 -20 -20 -20 -20 -20 -20 -20 -20 -20 -20 -20 -20 -20 -20 -20 -20 -20 -20 -20 -20 -20 -20 -20 -20 -20 -20 -20 -20 -20
-20 -4 12 14 16 4 -4 -10 -20 -20 -3 -20 -20 -20 -20 -20 -20 -20 -20 -20 -20 -20 -20 -20 -20 -20 -20 -20 -20 -20 -20 -20 -20 -20 -20 -20 -20 -20 -20 -20 -20 -20 -20
-20 -13 -20 14 14 12 14 7 -6 -6 -18 -5 -19 -20 -20 -20 -20 -20 -20 -20 -20 -20 -20 -20 -20 -20 -20 -20 -20 -20 -20 -20 -20 -20 -20 -20 -20 -20 -20 -20 -20 -20 -20
-20 -18 -20 8 1 12 12 15 14 14 12 -6 -4 2 -10 -7 -14 -20 -20 -20 -20 -20 -20 -20 -20 -20 -20 -20 -20 -20 -20 -20 -20 -20 -20 -20 -20 -20 -20 -20 8 -20 -20
4 -2 -8 7 1 -20 -15 -14 5 7 6 2 10 -2 -0 1 -15 -13 -19 -20 -20 -20 -20 -20 -20 -20 -20 -20 -20 -20 -20 -20 -20 -20 -20 -20 -20 -20 -20 -15 -20 -20 -20
3 -20 6 10 12 10 5 -6 -20 -20 -20 -20 -20 -20 -20 -20 -20 -1 -20 -20 -20 -20 -20 -20 -20 -20 -20 -20 -20 -20 -20 -20 -20 -20 -20 -20 -20 -20 28 -13 -20 -20 -20
-20 -20 -18 -16 -20 -13 -20 -20 -20 -20 -20 -20 -20 -20 -20 -20 -20 -20 -20 -20 -20 3 -13 -20 -20 -20 -20 -20 -20 -20 -20 -20 -20 -20 -20 -20 -20 -20 -20 -20 -15 -20 -20
-20 -20 -20 -20 -20 -20 -20 -20 -20 -20 -20 -20 -20 -20 -20 -20 -20 -20 -20 -20 -20 -20 -20 -20 -20 -20 -20 -20 -20 -20 -20 -20 -20 -20 -20 -20 -20 -20 -20 -1 -11 -20 -20
-20 -20 -20 -20 -20 -20 -20 -20 -20 -20 -20 -20 -20 -20 -20 -20 -20 -20 -20 -20 -20 -20 -19 -20 -20 -20 -20 -20 -20 -20 -20 -20 -20 -20 -20 -20 -20 -19 -20 -20 -20 -20 -20
-20 -20 -20 -20 -20 -20 -20 -20 -20 -20 -20 -20 -20 -20 -20 -20 -20 -20 -20 -20 -20 -20 -20 -20 -20 -20 -17 -7 12 -20 -20 -20 -20 -20 -20 -20 -20 -20 -19 -20 -20 -20 -20
-20 -20 -20 -20 -20 -20 -20 -20 -20 -20 -20 -20 -20 -20 -20 -20 -20 -20 -20 -20 -20 -20 -20 -20 -20 -20 -20 -20 13 12 -3 -20 -20 -20 -20 -20 -20 -20 -20 -20 -20 -20 -20
-20 -20 -20 -20 -20 -20 -20 -20 -20 -20 -20 -20 -20 -20 -20 -20 -20 -20 -20 -20 -20 -20 -20 -20 -20 -20 -20 -20 -18 -20 -20 -17 -20 -20 -20 -20 -20 -20 -7 -16 -1 -20 -19
-20 -20 -20 -20 -20 -20 -20 -20 -20 -20 -20 -20 -20 -20 -20 -20 -20 -20 -20 -20 -20 -20 -20 -20 -20 -20 -20 -20 -20 -20 -20 -14 -11 -20 -20 -20 -20 -20 -20 -19 -18 -12 -19
-20 -20 -20 -20 -20 -20 -20 -20 -20 -20 -20 -20 -20 -20 -20 -20 -20 -20 -20 -20 -20 -20 -20 -20 -20 -20 -20 -20 -20 -20 -20 -20 -20 7 -20 -20 21 16 -20 25 -20 -20 -14
-20 -20 -20 -20 -20 -20 -20 -20 -20 -20 -20 -20 -20 -20 -20 -20 -20 -20 -20 -20 -20 -20 -20 -20 -20 -20 -20 -20 -20 -20 -20 -20 -20 -20 -20 -11 -20 -20 -20 -20 4 -11 8
-20 -20 -20 -20 -20 -20 -20 -20 -20 -20 -20 -20 -20 -20 -20 -20 -20 -20 -20 -20 -20 -20 -20 -20 -20 -20 -20 -20 -20 -20 -20 -20 -20 -20 -20 -20 -20 -20 -20 -20 -13 22 27
-20 -20 -20 -20 -20 -20 -20 -20 -20 -20 -20 -20 -20 -20 -20 -20 -20 -20 -20 -20 -20 -20 -20 -20 -20 -20 -20 -20 -20 -20 -20 -20 -20 -20 -20 -20 -20 -20 -20 -20 -20 -16 32
-20 -20 -20 -20 -20 -20 -20 -20 -20 -20 -20 -20 -20 -20 -20 -20 -20 -20 -20 -20 -20 -20 -20 -20 -20 -20 -20 -20 -20 -20 -20 -20 -20 -20 -20 -20 -20 -20 -1 -20 -20 -19 -20
-20 -20 -20 -20 -20 -20 -20 -20 -20 -20 -20 -20 -20 -20 -20 -20 -20 -20 -20 -20 -20 -20 -20 -20 -20 -20 -20 -20 -20 -20 -20 -20 -20 -20 -20 -20 -20 -20 -20 -20 -20 -10 5
-20 -20 -20 -20 -20 -20 -20 -20 -20 -20 -20 -20 -20 -20 -20 -20 -20 -20 -20 -20 -20 -20 -20 -20 -20 -20 -20 -20 -20 -20 -20 -20 -20 -20 -20 -20 -20 -20 -20 -20 -6 -20 -13
-20 -20 -20 -20 -20 -20 -20 -20 -20 -20 -20 -20 -20 -20 -20 -20 -20 -20 -20 -20 -20 -20 -20 -20 -20 -20 -20 -20 -20 -20 -20 -20 -20 -20 -20 -20 -20 -20 -20 -20 -20 -20 14
-20 -20 -20 -20 -20 -20 -20 -20 -20 -20 -20 -20 -20 -20 -20 -20 -20 -20 -20 -20 -20 -20 -20 -20 -20 -20 -20 -20 -20 -20 -20 -20 -20 -20 -20 -20 -20 -20 -20 -20 -20 -20 -16
-20 -20 -20 -20 -20 -20 -20 -20 -20 -20 -20 -20 -20 -20 -20 -20 -20 -20 -20 -20 -20 -20 -20 -20 -20 -20 -16 -20 -20 -0 -20 -19 -20 -20 -20 -20 -20 -20 -20 -20 -20 -20 -20
-20 -20 -20 -20 -20 -20 -20 -20 -20 -20 -20 -20 -20 -20 -20 -20 -20 -20 -20 -20 -20 -20 -20 -20 -20 -20 -15 -2 -10 -17 8 -6 8 -17 -20 -20 -20 -20 -20 -20 -20 -20 -20
-19 -20 -20 -20 -20 -20 -20 -20 -20 -20 -20 -20 -20 -20 -20 -20 -20 -20 -20 -20 -20 -20 -20 -20 -20 -20 -20 -20 -20 -19 -20 -19 -18 -2 -19 -20 -20 -20 -20 -20 -20 -20 -20
11 -13 -20 -20 -15 -20 -20 -20 -20 -20 -20 -20 -20 -20 -20 -20 -20 -20 -20 -20 -20 -20 -20 -20 -20 -20 -20 -20 -20 -10 0 -7 4 0 -12 -20 -20 -20 -20 -20 -20 -20 -20